GFSFLT1_925_thetae_000.txt.gz
Theta_e
325 324 325 326 326 326 329 330 323 321 323 324 320 320 319 318 316 316 316 316 316 315 315 315 315 316 316 316 317 316 315 316
326 325 325 325 326 325 327 325 323 322 323 319 317 316 315 316 315 314 312 313 313 312 312 312 311 312 312 312 311 312 312 314
324 324 325 327 326 325 324 321 318 317 317 316 315 315 315 314 314 312 312 311 310 310 309 309 310 309 309 310 311 310 309 309
323 324 323 322 321 320 318 317 315 314 314 314 313 313 312 312 313 313 312 312 311 308 307 307 307 307 307 307 308 308 310 308
321 322 321 320 318 317 316 315 313 313 312 313 312 313 313 314 314 312 311 309 308 306 306 306 305 306 305 307 306 306 307 308
320 320 319 319 318 317 316 315 314 313 312 311 312 313 313 311 309 309 307 307 305 304 304 303 304 303 304 305 305 304 306 305
319 318 318 318 317 316 315 314 313 313 312 312 311 308 308 308 308 307 304 303 303 303 302 302 303 303 303 304 304 304 302 302
320 319 318 317 316 316 315 315 314 313 312 310 309 309 308 307 305 304 302 302 302 301 302 301 302 301 301 300 299 302 301 300
319 318 317 317 316 316 316 315 314 313 312 311 309 307 305 305 303 301 301 301 301 300 301 300 300 299 298 298 298 299 298 298
318 317 317 317 316 315 315 314 314 313 312 309 306 305 304 303 301 300 300 301 301 300 299 299 298 298 298 297 297 296 296 296
318 317 316 316 315 315 315 314 313 312 308 305 304 304 304 302 301 301 301 300 298 299 299 298 298 297 296 295 295 295 295 295
317 316 315 315 314 314 313 311 310 308 306 304 304 303 302 301 301 300 299 298 297 297 296 295 295 295 295 293 292 292 293 292
316 315 313 312 312 311 311 309 309 307 305 304 303 302 301 300 300 298 296 296 296 295 295 294 294 294 293 293 293 293 293 293
315 313 313 311 309 308 307 308 307 306 305 304 302 301 299 298 297 296 295 295 294 293 292 291 290 290 290 290 290 290 289 288
314 313 311 308 307 306 306 305 306 306 305 303 302 300 298 296 296 294 293 293 291 291 290 290 290 289 289 289 288 288 287 286
312 311 309 307 305 304 303 303 304 304 303 302 301 300 297 296 295 293 292 291 290 289 289 289 289 289 288 286 285 285 285 285
309 308 306 305 303 302 300 301 301 303 302 301 301 300 297 296 294 293 292 290 289 289 289 289 289 288 287 285 285 284 283 283
307 305 304 302 300 299 299 299 299 301 301 300 300 297 296 295 295 293 291 290 289 289 289 289 288 288 286 285 284 282 281 281
305 303 301 300 299 298 297 297 297 297 298 299 298 297 296 295 294 293 291 290 289 289 290 288 288 287 286 285 283 282 281 281

GFSFLT1_925_thetae_003.txt.gz
Theta_e
323 324 324 323 325 327 328 327 324 323 323 322 320 317 315 315 314 313 312 313 313 313 311 312 312 311 311 311 310 311 311 311
324 322 323 324 326 326 324 322 319 322 319 317 315 314 314 314 312 312 312 312 312 312 311 311 310 310 308 308 308 306 307 308
321 319 319 320 318 317 316 316 315 315 315 313 313 313 313 312 312 312 312 312 312 310 309 308 307 307 306 306 305 308 307 307
319 318 317 317 316 315 315 314 314 313 313 313 312 312 312 313 313 313 310 309 308 307 306 305 305 307 306 304 305 305 306 306
319 318 318 317 316 315 314 313 313 312 311 311 311 312 313 312 309 308 308 305 305 304 304 303 303 304 304 304 303 305 306 306
316 317 318 317 316 315 314 313 313 312 311 310 311 311 308 307 308 306 304 303 301 302 302 302 302 303 303 302 302 302 303 303
316 318 317 316 315 315 314 313 312 312 311 311 310 308 307 307 304 304 303 301 301 301 301 302 301 301 301 301 299 301 301 301
314 316 316 316 315 315 314 314 314 312 311 310 309 308 305 303 302 301 300 301 300 300 301 300 299 298 298 298 298 299 299 298
313 315 315 316 315 315 315 314 314 313 312 308 305 304 303 303 302 301 300 300 302 300 300 300 299 298 298 297 297 296 296 296
314 316 316 314 314 314 314 314 312 309 306 304 304 304 304 304 303 301 301 300 300 300 299 298 297 295 295 295 295 294 294 294
313 313 312 311 312 311 311 310 308 306 305 305 305 304 304 302 302 300 299 298 297 296 296 295 294 294 294 293 293 291 291 292
311 311 311 311 309 308 308 308 308 309 308 306 305 304 302 301 301 300 299 297 295 295 295 293 292 291 290 290 290 290 290 291
310 311 309 308 306 306 306 306 307 307 307 306 305 303 301 300 299 298 296 295 294 294 292 291 290 289 289 289 289 290 289 288
309 310 309 307 305 305 304 303 304 302 305 306 304 303 301 299 297 295 294 293 292 291 290 289 289 289 289 289 288 287 286 286
308 307 306 305 304 302 299 298 299 299 301 304 303 303 302 297 296 294 293 292 291 290 289 289 289 289 289 288 287 286 286 285
306 305 304 303 299 298 298 298 297 296 297 299 302 302 300 297 295 293 294 292 290 289 289 289 289 289 288 287 286 285 285 283
305 305 303 300 299 298 297 296 295 295 295 295 296 300 299 297 295 296 294 291 289 289 289 289 289 288 288 286 285 284 283 282
304 303 300 299 298 296 295 295 295 295 294 296 297 298 297 296 295 295 292 291 289 289 289 289 288 287 287 286 285 284 283 282
303 300 298 297 296 295 294 294 294 294 294 295 295 296 294 295 295 293 292 291 290 289 289 288 288 287 286 285 285 284 282 281

GFSFLT1_925_thetae_006.txt.gz
Theta_e
319 323 321 332 333 331 330 325 325 325 323 323 320 318 315 313 313 313 312 312 311 311 311 310 311 311 309 308 307 307 306 306
319 321 322 326 328 327 326 327 325 319 316 316 315 314 313 312 312 312 312 312 312 311 309 309 308 307 306 305 306 306 305 304
316 315 316 316 315 315 315 316 317 315 316 314 313 312 312 312 313 312 311 309 307 307 305 304 304 305 305 304 304 304 305 305
316 314 314 314 314 314 313 313 314 314 312 312 311 312 312 313 312 310 309 307 305 303 303 302 302 302 303 303 302 302 304 305
315 314 315 314 313 313 313 313 313 312 312 312 312 312 312 309 307 307 306 304 302 301 301 301 301 302 301 301 301 301 301 302
314 315 315 315 314 314 313 313 312 312 311 311 311 311 308 307 307 305 303 302 301 300 300 301 301 300 300 299 300 301 300 301
315 316 316 315 315 314 313 314 313 312 311 311 311 309 307 306 303 302 302 301 300 300 300 300 299 299 298 298 297 297 297 296
313 315 315 315 315 314 314 313 314 312 312 310 309 306 304 302 303 304 303 300 300 300 300 299 299 298 297 297 296 295 293 293
312 314 313 313 312 312 313 311 310 310 306 304 304 304 304 305 304 304 302 301 300 299 298 297 296 294 293 293 293 292 291 290
310 311 311 310 310 310 310 310 308 306 305 306 307 307 306 305 304 303 301 300 299 296 294 294 294 294 292 291 290 289 290 290
309 310 309 308 307 306 306 307 307 307 307 307 306 304 303 302 302 301 300 299 296 295 293 293 293 291 290 289 289 289 289 290
308 308 307 306 305 305 305 304 305 304 303 304 305 305 304 302 300 299 297 296 295 294 293 292 291 290 289 289 289 289 289 289
307 307 306 304 304 301 298 298 297 297 297 300 303 304 303 301 299 298 297 296 294 293 291 290 289 289 289 289 288 288 288 287
306 305 304 302 299 298 298 297 296 296 295 295 295 296 298 302 299 297 294 292 293 294 290 289 289 288 288 288 288 287 286 285
304 304 302 299 298 298 296 296 295 295 294 294 295 297 298 300 295 294 294 293 293 294 289 288 288 289 288 288 287 286 285 284
304 303 301 298 298 296 295 295 294 294 294 294 295 296 297 297 298 297 295 293 293 292 288 289 289 289 288 287 286 286 285 284
304 303 299 298 296 295 294 294 294 294 293 294 294 295 296 296 296 295 295 294 290 290 290 289 289 288 287 286 286 285 284 284
302 301 298 296 295 294 294 294 294 293 293 294 294 294 295 294 295 295 295 293 292 290 288 289 288 287 286 285 285 284 284 282
301 297 296 295 295 294 294 294 293 293 294 294 294 294 293 293 294 293 292 292 291 289 288 288 286 285 285 285 284 283 282 281

GFSFLT1_925_thetae_009.txt.gz
Theta_e
319 323 328 329 331 330 325 327 326 324 323 320 317 316 314 313 312 312 311 311 311 311 310 309 308 307 306 305 305 304 304 304
315 321 327 330 329 329 326 324 318 319 315 316 316 313 312 312 312 311 310 310 308 307 306 305 304 303 303 302 302 302 302 303
314 315 321 322 322 321 319 318 316 318 318 314 313 312 312 312 310 310 309 307 305 305 304 302 301 301 300 301 301 301 301 301
314 312 315 318 318 315 314 314 315 315 316 312 312 311 312 312 309 308 306 304 303 302 301 300 301 301 300 300 300 301 301 301
312 312 312 312 311 312 312 312 312 312 312 311 311 311 311 309 307 304 303 302 300 300 300 300 300 299 299 298 298 299 299 299
312 312 313 314 313 313 313 313 312 312 311 311 311 311 308 306 303 302 303 301 300 300 301 301 300 299 298 298 297 297 297 296
312 313 313 313 312 311 310 310 311 311 311 310 309 309 306 302 304 305 305 303 304 304 303 299 299 298 297 297 296 294 292 292
313 313 312 312 312 313 312 312 311 309 308 306 305 304 303 304 304 306 306 304 303 302 300 299 296 295 294 293 292 291 290 289
309 309 310 309 309 309 309 308 306 306 306 306 306 306 305 305 305 304 303 302 302 300 298 294 293 293 293 291 290 289 289 289
308 308 308 308 307 307 307 307 307 306 305 305 305 305 304 304 303 302 301 301 300 297 295 294 293 292 291 290 289 289 289 289
307 307 305 305 306 306 305 306 305 301 301 301 303 304 303 303 302 302 300 299 297 296 296 294 292 291 289 289 289 288 288 288
306 306 305 304 303 301 300 298 297 296 296 295 295 295 295 296 300 300 299 297 296 295 294 292 292 290 289 289 288 288 288 289
305 304 303 302 298 297 296 296 296 295 295 294 294 294 294 295 298 298 296 295 294 293 293 293 291 289 288 288 288 288 288 287
304 303 301 298 297 296 296 296 295 294 294 294 293 293 293 293 295 298 297 295 293 294 294 294 290 288 288 288 288 288 286 285
303 301 299 297 297 296 295 295 295 294 294 293 293 293 293 294 295 295 295 295 295 294 293 292 288 288 288 288 287 286 285 286
303 301 298 296 296 295 295 295 294 294 294 293 293 293 293 294 294 294 295 295 294 293 290 289 290 288 288 287 286 286 285 284
304 302 299 297 296 295 295 294 294 294 293 293 293 293 293 293 294 294 295 295 294 292 293 290 288 288 287 286 285 285 284 283
302 301 298 297 295 295 294 294 294 293 293 293 293 293 293 292 293 294 294 293 292 291 290 288 287 286 285 285 285 284 283 282
301 300 297 296 295 294 294 294 293 293 293 293 293 293 292 292 292 293 293 292 292 291 288 287 286 285 284 284 283 281 280 279

GFSFLT1_925_thetae_012.txt.gz
Theta_e
318 325 324 325 329 329 327 326 325 324 320 318 313 313 313 313 313 312 311 311 311 310 307 306 305 304 303 302 301 300 300 300
319 320 325 326 326 326 326 326 325 318 315 317 315 313 312 312 311 311 310 308 307 306 304 303 301 301 300 300 299 299 299 300
313 317 320 322 323 324 324 319 315 317 317 317 315 312 312 311 309 308 305 304 303 302 301 300 300 300 299 298 297 297 298 300
312 313 316 315 315 316 315 316 315 316 315 311 311 311 311 311 308 304 302 301 301 300 301 303 301 299 299 298 297 297 298 298
310 310 312 313 312 311 311 311 311 311 311 311 311 310 310 308 305 302 302 302 302 302 303 304 302 300 298 298 297 297 297 297
311 310 310 310 310 311 311 311 311 311 310 310 310 309 307 304 302 304 305 305 303 302 302 302 300 298 297 297 296 295 294 292
310 311 311 311 311 311 311 311 311 310 309 308 308 307 306 304 304 304 305 304 303 302 302 300 298 296 295 293 292 291 290 289
310 310 310 310 311 310 310 309 307 306 306 306 305 304 304 304 304 304 304 303 302 301 300 298 295 293 292 292 290 289 289 289
309 308 306 306 306 307 307 306 305 305 305 305 304 304 304 303 303 303 303 302 301 300 299 295 293 296 293 290 290 289 288 288
306 306 307 306 306 306 306 305 303 301 300 299 299 301 300 298 297 299 301 301 301 299 296 294 296 292 291 290 290 289 288 288
305 305 304 305 305 305 305 301 297 297 296 296 295 294 294 293 293 294 295 299 298 297 295 296 293 292 292 290 289 288 288 288
303 303 303 302 302 301 299 298 297 296 295 294 294 293 292 292 291 292 297 298 297 296 295 295 293 293 291 290 289 288 288 288
303 303 301 298 297 297 298 297 296 295 294 294 293 293 292 292 292 292 294 296 296 296 294 293 293 294 291 289 288 288 288 288
302 302 301 297 296 297 296 296 295 295 294 294 293 293 293 292 292 293 293 294 294 293 293 294 293 291 288 288 288 288 287 286
301 300 299 297 297 297 296 295 295 294 294 293 293 293 293 292 292 293 293 294 294 293 294 293 290 288 289 288 288 287 286 286
301 300 298 297 297 296 295 295 294 294 293 293 293 293 293 292 292 292 293 293 294 294 293 291 290 289 289 287 286 286 285 284
302 301 299 297 297 296 295 294 294 293 293 293 293 293 293 292 292 292 292 294 293 292 291 290 289 288 287 286 285 285 284 283
302 301 301 298 297 296 295 294 293 293 293 293 293 293 292 292 292 292 292 292 292 292 292 289 287 286 285 284 284 283 282 280
301 301 301 298 296 295 294 293 293 292 293 293 292 292 292 291 291 291 290 290 292 291 289 286 286 285 283 282 281 280 279 278

GFSFLT1_925_thetae_015.txt.gz
Theta_e
321 323 323 325 326 327 327 325 324 324 324 322 317 314 313 312 311 311 310 309 308 307 305 304 304 303 302 300 300 301 301 301
321 323 325 326 326 326 325 325 324 324 318 314 315 315 313 311 310 309 309 307 305 304 303 302 301 301 301 301 300 300 300 300
320 321 323 325 326 326 325 325 321 317 318 317 315 313 312 310 308 307 305 303 302 301 301 303 303 302 300 299 299 300 300 300
320 320 322 322 323 323 316 315 315 316 315 313 312 311 310 308 305 304 303 303 304 304 303 303 303 302 301 299 299 299 299 299
317 315 314 314 313 314 314 312 311 310 310 309 309 310 310 307 304 303 304 304 303 302 302 301 302 299 298 298 297 296 295 294
313 311 310 309 310 309 309 309 309 309 309 309 309 308 307 305 304 304 304 304 303 302 301 301 301 298 296 294 294 293 292 292
312 311 310 309 308 309 309 309 307 307 306 305 304 304 304 304 304 304 304 303 303 302 301 300 298 296 294 293 291 292 292 291
313 312 311 310 309 308 307 307 305 305 304 304 303 303 303 303 303 303 301 301 302 302 301 299 297 293 293 293 292 289 291 290
313 311 308 307 306 306 305 305 304 303 301 299 299 298 298 296 294 294 296 297 298 298 299 298 294 295 294 294 292 292 291 291
312 308 307 306 305 305 304 303 300 298 297 296 295 294 294 293 292 292 292 291 295 298 298 296 295 296 294 294 293 292 291 290
310 308 306 306 306 305 301 298 297 297 296 295 294 294 293 293 292 291 291 291 296 297 297 296 295 296 294 293 292 291 291 290
309 305 304 304 304 301 297 297 298 297 296 294 294 293 293 292 292 291 292 292 294 296 296 295 295 293 293 293 292 289 289 289
306 304 302 301 299 297 298 298 299 297 295 294 294 293 293 292 292 292 292 292 293 294 294 294 293 294 293 292 289 288 289 289
305 303 300 298 297 297 298 299 300 295 294 294 293 293 293 292 292 292 291 292 293 294 293 293 294 293 291 288 288 288 288 287
305 304 301 297 297 298 301 301 296 294 294 294 293 293 293 292 292 292 292 292 293 294 293 293 290 288 288 289 288 287 286 285
305 304 300 298 297 300 302 298 294 294 294 293 293 293 293 292 292 292 292 292 293 294 292 292 290 289 288 287 286 286 285 285
305 303 301 297 298 299 299 295 294 293 293 293 293 292 292 292 292 291 292 292 292 292 291 291 291 288 286 286 286 285 284 283
305 304 302 300 299 299 296 294 293 293 293 292 292 292 292 292 292 291 291 291 290 291 291 291 287 286 285 284 283 282 281 280
304 303 302 301 299 297 295 293 293 293 292 292 292 292 292 292 291 291 290 289 290 291 290 287 286 285 283 282 281 281 280 279

GFSFLT1_925_thetae_018.txt.gz
Theta_e
328 328 328 329 331 332 332 330 328 324 323 324 322 319 316 315 314 313 312 311 310 310 310 309 308 307 307 307 307 307 306 306
328 329 329 330 331 331 330 327 326 325 324 321 319 319 317 314 312 310 310 309 308 308 307 307 307 307 307 306 306 305 304 304
329 330 330 330 330 330 329 328 325 323 322 321 321 319 315 312 310 308 308 307 306 306 307 307 306 306 305 306 304 303 302 303
330 330 331 330 329 329 327 324 322 321 320 318 316 315 313 312 310 309 306 307 306 306 306 305 304 303 302 304 303 302 302 301
330 328 326 327 325 321 320 319 318 315 314 314 315 315 315 311 308 307 307 307 306 305 304 303 303 302 302 302 300 299 298 298
323 321 321 320 318 317 315 314 312 313 313 313 313 311 309 308 308 307 307 306 305 304 303 302 302 302 302 301 299 297 297 297
318 317 315 315 314 314 313 312 312 311 311 310 309 308 307 306 305 303 301 300 300 300 301 302 302 302 301 299 297 297 297 295
317 315 314 314 314 313 312 311 310 309 307 305 305 304 303 301 299 298 298 297 297 297 298 299 301 301 299 297 297 297 294 293
318 316 315 314 313 312 311 310 308 306 304 304 301 299 298 298 297 297 296 296 296 296 297 299 300 299 298 296 297 296 294 293
318 316 314 313 312 311 309 307 304 302 301 299 299 298 298 298 297 296 295 295 295 296 298 299 299 299 298 297 296 295 294 293
318 315 313 312 311 309 306 303 301 300 299 298 298 298 297 297 297 296 295 295 295 295 296 298 298 298 298 296 295 295 293 292
318 314 312 311 309 306 303 302 301 299 299 298 298 297 297 297 296 295 294 294 294 294 295 296 297 297 296 295 295 295 293 291
317 313 311 310 308 304 302 301 300 300 299 297 297 297 297 296 296 295 294 294 294 294 294 294 295 295 294 295 295 293 291 291
315 312 309 308 305 303 301 300 301 299 297 297 297 297 297 296 296 294 294 294 294 294 294 294 294 294 294 294 292 291 291 290
314 311 308 306 303 300 300 302 301 299 297 297 297 297 296 296 295 294 294 293 293 293 294 294 294 292 291 291 290 290 290 289
313 312 308 304 301 300 303 303 302 298 297 297 297 296 296 295 295 294 294 293 293 293 293 293 293 292 291 290 290 289 289 288
312 311 309 305 303 301 303 303 299 298 297 297 296 296 295 295 294 294 293 292 292 293 293 293 293 292 288 286 286 288 287 286
312 311 309 306 302 303 302 301 298 297 296 296 295 295 294 294 293 293 293 292 292 292 292 293 292 290 286 285 284 286 286 284
313 311 307 305 303 302 301 298 296 296 295 295 294 293 293 293 293 293 293 292 292 292 291 291 290 288 284 283 283 285 284 283

GFSFLT1_925_thetae_021.txt.gz
Theta_e
330 329 327 327 330 333 334 333 330 329 324 324 324 324 323 320 319 317 316 315 314 314 313 312 311 311 311 311 310 310 309 307
330 331 330 331 333 334 333 331 330 327 328 327 326 321 320 319 316 314 314 312 311 311 311 311 311 310 310 309 309 308 304 303
331 332 332 332 333 333 332 330 330 329 327 325 322 322 318 316 314 313 312 311 311 310 310 310 309 308 307 305 305 305 303 302
332 332 332 333 332 332 331 330 328 325 324 322 321 318 316 315 314 313 311 310 310 309 308 308 306 305 303 303 304 304 302 301
332 333 333 332 331 331 329 326 324 323 319 317 317 317 318 315 313 312 311 310 309 308 306 305 304 303 303 303 302 302 300 300
333 332 330 329 326 324 323 321 317 316 317 317 316 315 314 312 311 309 307 305 303 302 301 302 304 303 303 302 302 301 299 300
327 325 324 323 321 319 318 316 316 316 315 314 313 311 309 308 305 303 301 300 299 299 299 299 300 301 302 302 301 300 300 299
323 322 320 319 318 317 316 315 315 313 311 309 308 306 303 302 301 300 299 299 298 298 298 299 299 300 301 300 300 299 299 297
321 319 318 318 317 316 315 314 313 310 308 306 302 301 300 300 300 299 298 298 297 297 297 298 300 300 300 300 298 299 298 296
320 319 318 318 317 316 315 313 310 307 305 304 301 300 301 301 300 299 298 297 296 296 297 297 298 299 299 300 299 299 297 296
321 319 319 318 316 315 313 310 307 305 304 302 300 300 300 300 300 299 297 296 296 296 296 296 296 297 298 298 298 297 296 296
321 320 318 317 316 314 310 307 306 305 302 300 300 300 300 300 299 298 297 296 296 295 295 295 296 296 296 296 296 296 296 295
322 319 317 316 315 311 308 307 307 303 302 300 301 300 300 299 299 298 297 296 295 295 295 295 295 295 295 295 295 295 295 294
322 320 317 316 314 310 308 307 305 303 301 300 300 300 300 299 299 298 296 296 295 294 295 295 295 295 295 294 293 293 293 292
323 321 317 315 314 310 307 306 305 303 301 300 300 300 299 299 298 297 296 295 295 294 294 294 294 294 294 293 293 292 292 291
322 320 317 315 313 309 306 306 306 303 301 300 299 299 299 299 297 297 296 295 295 294 294 294 294 294 293 293 292 292 291 290
321 319 316 314 311 308 305 307 305 304 301 300 299 299 298 298 296 296 295 295 294 294 294 293 294 294 291 290 287 289 289 289
319 318 315 313 310 307 305 306 304 302 300 299 299 298 297 296 295 294 294 294 294 294 293 293 293 292 290 287 286 286 288 287
318 316 314 313 311 306 306 304 303 300 299 298 298 297 295 294 294 294 294 294 294 293 293 292 292 291 289 286 284 285 287 286

GFSFLT1_925_thetae_024.txt.gz
Theta_e
328 326 326 327 333 333 331 333 329 328 322 322 323 325 325 321 320 318 317 315 315 315 314 312 312 312 311 310 310 309 309 306
329 329 328 326 335 335 333 332 330 328 324 325 327 325 322 320 317 316 314 313 312 311 312 311 311 310 309 307 306 306 306 304
331 331 330 331 335 335 333 331 329 328 328 328 326 322 321 317 315 314 312 312 311 311 310 310 309 308 306 304 303 304 305 303
332 332 333 332 335 334 331 331 330 330 329 325 321 318 316 315 314 312 312 311 311 310 309 307 306 305 304 304 303 303 303 301
332 333 333 333 332 332 331 330 329 326 324 322 320 318 317 315 313 313 312 311 309 306 304 303 304 305 305 304 303 303 302 301
332 333 333 332 331 331 331 328 324 322 319 319 318 316 314 313 311 308 307 303 301 300 300 299 299 299 301 303 303 302 301 300
331 332 331 330 329 326 324 321 318 318 318 317 315 312 310 307 303 302 301 300 299 299 299 299 299 300 300 302 302 301 300 300
332 330 327 325 324 321 318 317 317 316 314 311 309 305 304 303 303 301 300 299 299 298 298 298 298 300 300 301 301 301 300 299
327 326 324 322 320 319 317 317 316 313 310 307 304 303 304 302 301 300 299 299 298 297 297 297 297 298 299 300 300 299 299 299
324 322 321 320 319 318 317 316 313 310 307 304 304 303 300 301 301 300 299 298 297 297 297 296 296 296 297 299 298 299 299 298
322 320 320 319 319 317 316 315 312 308 306 305 303 301 301 301 300 300 299 297 297 297 296 296 296 296 296 296 298 297 296 297
322 320 320 319 318 317 317 314 309 306 306 304 301 301 301 301 300 300 299 297 297 296 296 295 295 296 296 296 296 296 296 295
322 321 320 319 318 317 315 311 307 308 305 302 301 300 301 301 300 300 299 297 296 296 295 295 295 295 295 295 295 294 294 294
323 322 320 319 318 317 313 309 308 307 304 303 302 301 301 300 300 299 298 297 296 296 295 295 295 295 295 295 294 293 293 292
324 322 321 319 318 316 313 309 308 306 304 303 301 301 301 300 300 299 298 297 296 296 295 294 294 294 294 294 293 293 292 292
323 324 321 319 317 316 312 309 308 306 305 302 301 301 300 300 299 299 297 297 296 295 295 294 294 294 294 293 292 291 291 291
321 323 322 319 317 316 312 309 307 308 305 303 301 300 300 299 298 297 296 296 295 295 294 294 294 294 293 292 289 288 288 289
319 321 321 319 317 315 311 308 307 307 304 301 301 299 299 298 296 295 295 295 295 295 295 294 293 293 292 291 288 288 287 288
318 319 319 318 316 313 310 307 306 305 301 300 299 299 297 295 294 294 294 294 294 294 294 293 293 292 291 290 288 287 287 287

GFSFLT1_925_thetae_027.txt.gz
Theta_e
325 326 330 330 330 329 328 330 332 330 323 321 323 324 324 320 319 317 316 315 315 314 313 311 312 311 310 309 307 306 305 305
325 325 329 330 330 329 330 330 331 328 320 322 325 325 321 321 317 315 314 312 312 311 311 311 310 309 308 306 304 303 303 304
327 329 328 332 331 331 332 331 329 326 320 323 326 322 321 316 316 314 312 311 311 310 310 310 309 308 305 304 304 303 303 303
328 329 332 334 333 331 331 331 329 328 326 326 326 322 316 315 314 312 312 311 311 310 308 307 306 305 305 304 303 304 302 302
329 330 331 334 333 332 331 330 329 327 327 328 324 317 314 314 313 312 311 310 308 303 301 300 300 300 300 302 303 302 302 301
330 330 333 334 333 331 330 328 328 329 329 321 318 316 314 314 312 309 305 304 302 301 300 299 299 298 299 299 301 302 302 300
328 331 332 332 331 330 330 329 323 319 321 319 317 314 311 307 305 305 302 301 299 299 298 298 297 298 299 300 301 301 301 300
329 330 330 328 329 330 326 320 317 317 317 314 313 311 308 308 305 304 301 299 298 298 297 297 297 297 298 299 300 300 299 299
327 324 323 322 321 319 317 317 316 316 314 310 307 307 307 306 304 300 299 299 298 297 296 296 296 296 296 296 298 297 298 299
323 321 321 321 320 318 317 316 315 313 311 308 308 306 307 302 301 300 299 298 297 297 296 296 296 296 296 295 296 298 299 298
320 320 319 320 319 318 317 316 313 310 307 306 305 305 301 301 300 300 299 298 297 296 296 296 295 295 295 296 296 296 296 295
318 317 318 319 319 318 317 315 311 308 305 305 305 302 301 301 300 300 299 298 297 296 296 295 295 295 295 295 295 295 294 294
317 317 317 317 318 317 316 314 310 306 306 306 303 301 301 301 300 300 299 298 297 296 296 295 295 295 295 295 295 295 293 293
317 316 317 317 317 316 316 312 308 306 306 305 302 301 301 301 301 300 299 298 297 296 296 295 294 294 294 295 294 294 293 292
318 317 317 317 316 316 316 310 307 307 306 305 303 302 301 301 300 300 299 298 297 296 296 295 294 294 294 294 294 293 292 292
319 318 316 317 316 314 313 311 308 307 305 304 303 302 301 301 300 299 298 297 296 296 295 295 294 294 294 294 294 292 290 289
315 318 317 316 315 313 313 310 308 306 304 305 304 301 300 299 298 298 296 295 295 295 295 294 294 293 293 293 293 289 288 288
315 316 317 316 316 315 312 309 307 306 307 305 301 299 299 297 295 296 294 294 294 295 294 294 294 293 293 292 291 288 287 287
313 314 317 318 317 316 312 308 307 307 303 299 299 297 296 296 294 293 293 294 293 293 293 294 293 293 292 292 290 288 286 287

GFSFLT1_925_thetae_030.txt.gz
Theta_e
332 333 333 332 329 331 329 328 329 328 327 322 321 322 320 319 318 318 318 316 316 314 311 311 311 311 310 310 307 304 303 303
328 333 332 329 329 331 329 328 330 328 324 321 323 324 320 319 317 316 315 314 313 312 311 311 311 310 308 305 303 303 302 303
325 330 329 328 329 329 328 327 330 328 325 321 323 324 320 319 317 314 313 311 311 311 310 310 308 306 304 304 304 303 303 302
322 325 328 328 328 329 328 328 330 329 326 321 325 323 320 314 313 312 311 311 311 310 309 307 306 305 304 304 304 303 303 302
325 326 329 329 329 329 328 328 329 329 325 321 325 321 314 314 313 312 311 310 309 308 306 303 301 299 298 299 300 301 302 302
326 329 331 330 330 330 329 329 329 328 324 323 326 321 315 314 312 311 310 309 305 302 300 299 298 297 297 298 299 300 302 301
326 330 332 331 330 330 330 330 329 328 327 325 327 322 315 313 311 311 306 300 299 298 298 298 297 296 297 298 299 300 300 300
328 329 331 331 330 330 330 328 328 328 328 327 323 319 315 313 310 305 300 299 298 298 297 296 296 296 296 296 298 299 298 298
329 328 329 329 329 329 324 325 319 319 322 319 316 314 312 309 306 302 300 299 297 297 296 296 296 295 295 295 295 295 297 299
325 322 324 324 323 322 322 317 315 314 314 313 309 308 307 304 302 300 299 298 297 297 296 296 295 295 295 295 295 296 297 296
322 321 319 320 319 319 318 317 315 313 311 308 307 305 305 302 301 300 299 298 297 297 296 296 295 295 295 295 295 295 295 294
322 321 319 319 317 316 316 316 315 313 310 308 307 306 302 301 301 300 299 299 299 298 296 296 295 295 294 295 295 295 295 294
321 320 318 317 317 316 316 315 314 313 309 308 306 305 302 301 300 300 300 300 299 297 296 296 295 295 294 294 294 295 294 293
319 318 317 317 317 316 314 313 311 309 306 306 305 303 301 301 301 300 300 299 297 297 296 296 296 295 294 294 294 294 293 292
316 316 317 317 316 315 313 309 309 308 305 305 305 302 301 301 301 301 300 298 297 297 296 296 295 295 294 294 294 293 292 292
316 314 314 316 316 315 312 309 309 307 306 306 305 303 301 301 301 300 298 297 297 296 295 295 295 294 294 294 294 293 292 290
316 315 314 315 315 314 311 309 307 306 305 305 304 302 301 301 299 297 296 295 294 294 294 295 295 294 294 293 293 293 291 288
316 315 314 314 314 314 313 310 307 305 304 303 302 300 297 295 295 295 294 294 294 294 294 294 294 294 293 293 292 292 289 287
309 311 315 315 314 313 311 307 305 305 303 300 297 295 294 295 296 295 294 294 293 293 293 292 293 293 293 292 291 290 288 287

GFSFLT1_925_thetae_033.txt.gz
Theta_e
328 327 327 328 330 332 332 331 331 327 328 328 325 322 320 320 320 321 322 322 320 317 313 312 311 311 310 308 306 303 302 302
330 329 328 330 332 331 329 329 328 328 326 323 321 321 320 319 319 319 317 317 315 314 312 311 310 309 307 304 303 303 302 302
331 331 330 331 332 330 329 328 328 328 326 323 321 322 320 318 317 315 315 314 313 312 311 310 308 306 304 304 303 303 302 302
329 331 331 330 329 329 330 328 328 327 326 322 322 323 320 318 315 314 312 311 310 310 309 307 306 304 302 300 300 302 302 301
326 329 330 329 327 328 329 328 328 328 326 322 323 324 318 318 316 313 311 310 310 309 307 304 300 299 298 298 298 299 301 301
323 326 329 329 327 327 328 328 327 327 327 323 323 322 319 316 312 311 310 309 308 304 300 298 297 297 296 296 297 299 300 301
322 323 327 327 327 327 328 327 326 326 327 323 322 322 317 314 311 310 308 304 300 298 298 297 296 296 295 295 297 299 300 299
324 327 328 327 328 328 328 327 327 327 328 327 322 323 319 316 312 310 303 300 298 297 297 296 297 295 295 295 295 296 297 298
327 329 329 328 328 328 328 328 328 328 328 327 326 323 320 315 311 307 302 299 298 297 297 299 295 295 295 294 295 295 295 297
327 329 330 329 328 328 328 329 329 328 327 326 325 324 318 314 311 303 299 298 297 298 299 295 295 295 294 294 295 295 296 296
324 326 326 327 329 327 327 329 327 323 321 322 322 316 313 311 305 301 300 299 298 298 296 297 296 295 295 294 295 295 295 294
323 324 323 324 324 327 327 325 320 316 317 316 313 309 308 305 303 301 301 300 298 298 299 298 296 296 295 294 294 294 294 294
322 322 319 318 321 322 321 317 314 313 311 311 310 308 305 304 302 300 300 299 299 300 298 296 296 296 295 294 294 294 294 294
320 318 318 317 316 316 314 312 309 308 309 309 306 305 305 303 301 301 300 300 299 298 297 297 296 296 295 294 294 294 294 294
318 317 317 318 316 314 313 311 309 308 310 307 306 306 304 303 301 300 299 299 298 297 297 296 296 295 295 294 294 294 294 293
315 315 315 316 316 316 314 312 309 310 308 306 306 305 303 302 301 300 300 298 296 297 296 295 294 295 295 294 294 294 293 292
315 314 314 314 315 314 312 312 311 309 306 304 303 302 301 301 299 297 295 294 295 297 297 295 294 295 294 294 294 293 293 291
312 313 312 313 314 315 312 309 308 305 304 303 302 301 299 296 294 295 298 298 297 295 294 293 293 293 293 294 293 293 292 291
302 301 308 311 312 312 309 307 305 303 299 297 296 295 296 298 298 298 297 295 294 294 293 292 292 292 293 293 293 292 291 290

GFSFLT1_925_thetae_039.txt.gz
Theta_e
326 326 325 325 326 326 326 324 325 329 329 322 319 317 323 328 328 326 324 323 321 320 317 315 313 311 309 308 305 301 301 301
325 325 325 325 325 326 327 328 328 329 328 322 323 324 326 328 327 326 325 323 322 318 315 313 310 309 308 303 302 301 301 299
327 326 325 325 325 326 328 328 328 329 328 324 323 324 326 327 324 321 321 322 320 316 314 311 309 308 304 303 300 301 302 300
327 326 326 326 326 326 328 329 328 328 328 325 324 325 325 320 319 319 319 319 316 313 311 310 308 305 302 299 297 298 301 300
330 327 327 327 326 326 326 328 330 329 328 326 325 324 323 319 317 316 315 314 312 311 310 308 306 301 298 295 296 298 299 301
330 330 329 328 327 327 327 327 328 328 329 326 324 323 321 319 318 314 313 311 310 310 308 306 302 298 297 296 296 297 297 296
326 328 330 329 329 328 328 328 327 327 326 325 325 323 321 319 317 312 311 310 309 307 305 302 299 299 296 297 301 296 296 298
325 325 328 329 329 329 328 328 327 327 327 324 323 322 322 320 318 314 310 308 306 304 301 298 299 299 301 303 294 294 295 298
325 324 325 328 329 329 328 328 327 329 327 327 324 322 322 320 320 317 312 309 306 302 298 298 302 304 300 297 294 294 294 294
323 323 323 325 327 327 328 328 328 328 324 325 323 323 321 321 320 317 312 309 307 301 298 300 304 300 297 294 294 294 294 294
320 322 322 323 326 327 327 327 327 328 325 323 322 322 322 321 320 317 310 308 305 300 298 301 299 298 295 295 295 294 293 293
322 323 325 325 325 326 326 327 327 326 324 323 324 324 322 321 318 316 311 307 304 300 298 299 299 296 295 295 295 295 294 294
323 325 326 327 327 326 326 325 325 323 326 325 324 323 323 321 317 314 310 306 302 299 300 300 299 296 296 296 295 297 294 294
324 324 325 325 324 322 322 322 322 323 322 319 316 314 312 311 312 310 306 302 300 298 301 298 299 296 295 295 297 296 294 294
323 323 322 321 321 321 321 318 317 316 313 310 309 308 308 307 306 304 302 301 300 299 297 297 296 295 295 296 297 295 294 294
321 322 321 320 319 317 317 318 318 316 312 309 307 305 303 302 301 300 299 298 298 297 296 295 296 297 297 297 296 295 294 294
314 314 316 317 317 316 313 310 309 308 307 305 303 302 302 301 300 299 297 297 296 295 297 297 297 296 296 297 295 292 293 293
308 308 308 309 310 311 310 308 306 305 304 302 301 301 300 298 297 296 296 296 297 296 296 296 296 295 296 294 292 292 292 293
303 303 302 302 303 303 303 302 302 301 299 298 298 298 297 296 297 296 296 297 297 296 296 296 295 296 293 291 291 290 291 291

GFSFLT1_925_thetae_042.txt.gz
Theta_e
330 329 326 326 326 325 324 325 328 329 329 326 322 320 322 327 329 329 327 325 322 322 321 319 318 316 315 313 311 308 307 305
329 330 330 328 328 326 326 327 328 329 330 327 323 321 324 328 329 330 327 326 323 322 321 318 316 315 314 312 309 308 307 304
326 329 329 329 328 329 328 327 328 330 330 329 323 324 323 325 327 329 328 326 322 321 319 317 315 314 312 310 308 307 305 304
330 326 327 328 328 328 328 328 330 330 329 328 325 326 328 328 327 326 325 323 321 319 317 316 314 312 311 309 307 304 307 306
330 329 327 326 327 327 327 329 330 330 330 329 327 325 325 326 326 324 323 321 319 317 316 314 313 311 309 307 304 305 304 305
331 330 328 327 327 327 328 328 331 330 330 329 329 328 327 327 326 322 320 318 317 315 314 312 311 309 307 304 304 304 303 302
330 329 330 330 329 328 328 329 329 331 331 330 330 330 330 327 323 320 318 316 314 312 311 310 309 306 305 304 305 304 305 300
331 331 331 331 331 331 331 330 329 330 330 327 328 329 329 325 323 320 317 315 312 310 308 307 306 304 304 304 305 301 297 302
330 331 330 330 332 333 333 332 330 330 328 326 327 326 326 323 324 320 317 312 311 308 306 305 304 303 303 305 300 295 300 300
326 328 329 330 331 333 334 333 331 331 328 326 322 324 324 324 323 320 315 312 310 307 305 303 302 302 304 300 297 298 298 300
324 325 326 327 329 331 333 333 332 332 329 326 324 326 325 323 322 319 316 311 309 306 304 303 302 302 300 297 296 298 299 300
326 326 326 327 327 329 331 331 331 331 331 329 326 325 325 323 322 319 315 312 310 305 303 303 302 299 297 297 298 298 299 299
327 328 328 329 329 329 329 329 330 330 331 330 328 325 323 320 317 316 312 309 308 304 304 303 300 299 298 297 297 297 299 299
327 329 330 330 331 330 330 329 329 329 327 325 324 321 317 314 314 312 310 309 306 304 302 300 299 299 297 297 297 296 299 298
327 329 329 329 329 329 329 327 325 321 321 320 319 317 316 316 313 310 308 306 304 302 300 299 298 297 297 296 295 296 297 298
326 328 329 328 327 325 325 322 320 319 318 318 316 314 312 310 308 307 305 305 301 300 298 297 297 297 295 297 297 296 296 297
323 325 325 324 324 322 319 318 316 315 314 312 310 308 305 304 302 300 298 297 297 297 298 297 296 296 297 296 296 296 296 295
318 318 317 317 318 318 316 314 312 311 310 308 306 304 301 299 298 297 296 298 297 297 297 297 297 297 298 296 296 295 293 294
313 312 312 312 312 311 311 310 308 307 306 304 303 302 300 299 299 299 297 297 297 297 298 297 299 298 296 296 294 291 292 292

GFSFLT1_925_thetae_045.txt.gz
Theta_e
327 325 322 321 322 321 320 322 323 325 327 325 323 320 322 321 322 325 328 329 328 327 326 325 323 322 321 320 318 315 312 310
328 326 324 324 324 325 325 324 323 327 328 325 322 321 321 322 325 326 328 328 327 326 325 325 323 322 321 318 316 313 311 309
329 329 327 327 326 326 325 325 325 328 328 328 324 322 320 322 325 328 329 329 328 326 326 324 323 321 319 317 314 312 311 309
329 329 329 327 327 326 326 326 328 328 328 328 327 323 322 322 325 327 329 328 328 326 326 323 322 320 318 316 314 312 310 310
327 327 329 329 328 328 328 328 328 328 328 329 327 324 325 327 327 328 328 328 328 326 324 322 320 319 317 315 313 311 310 311
329 327 325 328 329 329 329 329 329 329 330 329 329 327 326 327 327 328 328 327 326 324 322 321 319 318 316 314 310 309 309 309
328 328 326 325 326 328 330 329 329 329 330 330 330 329 329 328 328 328 327 326 324 322 320 319 317 315 313 312 308 308 307 307
328 328 329 328 327 327 329 329 328 329 330 331 330 331 331 327 329 329 325 324 322 321 319 316 315 312 310 309 306 308 306 303
329 328 328 329 330 330 330 330 330 329 331 332 328 331 329 327 324 327 323 322 320 318 316 313 311 309 307 305 306 305 300 301
328 329 328 329 330 332 333 333 332 331 332 331 329 329 329 328 327 326 323 321 319 316 313 310 308 306 305 306 304 300 301 300
325 327 328 329 330 332 335 335 334 333 331 331 329 329 328 327 326 325 323 320 316 311 310 309 306 305 305 303 300 299 298 299
326 326 326 327 329 331 333 336 336 334 333 331 330 327 327 325 325 324 322 319 313 309 309 306 305 305 303 300 298 298 300 300
327 328 328 329 329 330 332 334 334 334 334 332 331 328 327 325 324 323 321 317 314 311 307 305 305 304 301 298 299 299 300 300
326 329 331 331 330 331 332 332 332 332 332 332 330 327 324 323 321 319 317 314 312 306 305 305 304 301 299 299 299 298 297 297
325 329 330 330 331 331 332 332 332 332 331 330 328 322 319 318 315 313 311 309 307 306 305 303 301 299 300 298 298 297 297 298
323 328 330 330 331 331 331 328 327 326 326 325 322 320 319 318 316 313 310 308 305 303 301 300 299 299 298 297 298 298 298 298
326 329 330 330 329 329 326 324 323 322 321 318 316 314 312 310 309 307 307 305 304 301 300 299 298 298 298 297 298 299 298 296
326 327 327 327 325 324 322 320 318 316 314 312 310 308 306 304 303 302 301 300 300 299 298 298 299 300 298 297 297 297 296 296
321 321 321 321 320 318 316 315 314 312 310 309 307 305 304 303 303 302 301 300 300 300 300 300 300 299 298 298 297 296 295 294

GFSFLT1_925_thetae_048.txt.gz
Theta_e
325 322 320 319 318 317 315 314 314 315 316 313 314 319 321 322 322 323 326 327 327 328 327 326 324 323 323 322 321 319 316 314
325 323 322 321 317 317 315 314 316 318 320 319 322 321 322 322 322 321 326 327 328 329 327 326 324 324 323 322 319 317 313 311
326 322 322 322 320 319 321 320 319 321 321 322 325 323 321 323 323 323 328 327 328 328 327 326 325 324 323 321 319 315 313 311
328 325 324 324 324 323 323 324 323 324 326 326 327 323 321 320 322 326 327 328 328 328 327 327 325 324 322 320 318 315 313 310
329 329 327 326 326 326 326 326 325 324 327 328 328 325 324 322 322 327 327 326 328 328 327 326 324 323 322 319 317 314 313 312
330 329 330 328 328 328 327 326 326 327 327 329 328 327 323 323 322 324 326 328 327 327 327 325 324 322 320 319 316 314 312 311
327 328 329 329 329 329 328 328 327 329 328 326 329 328 326 326 328 328 328 328 327 327 326 324 322 321 319 318 315 311 310 310
328 327 326 329 330 330 330 331 330 330 330 329 329 330 329 327 328 328 327 323 325 325 324 323 321 320 319 315 313 309 309 307
328 328 327 326 327 331 331 331 330 330 330 331 330 324 330 329 328 329 327 323 320 324 323 321 320 318 315 311 310 308 308 307
328 328 329 329 328 328 330 331 331 330 330 331 330 326 325 329 331 329 326 324 321 323 321 320 317 316 313 309 307 306 306 301
327 328 328 329 330 329 329 330 330 330 330 332 331 326 323 329 329 328 326 326 323 322 320 318 316 313 309 306 306 306 301 301
326 327 327 329 330 331 332 332 332 332 332 333 332 330 327 329 329 327 325 325 322 320 318 315 312 309 306 305 305 302 299 300
328 328 328 327 328 331 336 336 335 335 333 333 332 331 330 327 326 325 325 323 320 318 315 310 307 306 305 305 302 300 300 300
326 329 330 329 329 329 332 335 336 334 334 333 333 331 328 327 325 324 323 320 318 314 310 308 306 305 305 303 299 299 300 300
323 328 330 331 331 331 332 333 334 334 333 332 330 328 326 323 321 320 318 317 315 312 309 306 305 305 303 300 299 299 299 298
322 325 330 332 332 332 332 332 331 331 330 327 325 322 320 318 315 314 313 311 309 307 306 305 304 304 301 299 299 299 298 298
323 324 330 332 331 332 330 328 327 327 323 321 320 319 318 316 314 311 308 306 305 303 302 302 301 299 299 299 298 298 298 299
325 327 331 331 331 328 327 325 324 321 319 317 315 312 309 308 306 305 305 304 302 301 300 299 299 299 299 298 297 297 297 297
326 329 329 328 326 325 322 320 318 316 314 311 309 307 305 304 303 302 301 301 300 300 300 300 300 299 298 298 298 297 295 295

GFSFLT1_925_thetae_051.txt.gz
Theta_e
318 317 315 316 317 316 316 315 314 316 318 316 314 314 318 317 318 315 321 319 322 326 325 326 326 324 323 322 321 320 319 315
320 318 316 316 316 316 317 316 316 315 315 315 315 317 317 317 314 316 318 321 322 325 326 326 326 324 323 322 322 320 318 314
322 320 318 317 317 316 315 315 315 315 318 313 313 315 318 322 320 322 322 323 324 326 325 326 326 324 323 323 322 319 317 312
323 320 319 317 317 316 314 314 315 314 319 318 315 316 322 321 322 321 322 321 325 325 326 326 326 325 324 323 322 320 316 313
323 322 320 319 317 318 315 314 314 316 317 319 318 321 323 322 321 322 322 324 327 326 326 326 326 325 324 323 321 319 316 312
324 321 321 321 319 318 319 317 316 317 318 318 321 324 325 322 321 319 322 326 325 325 325 324 326 326 324 322 320 319 316 314
325 323 322 322 322 321 321 321 321 321 321 323 326 327 327 323 323 321 323 325 326 325 323 325 326 325 323 322 319 318 316 313
326 326 325 324 324 324 324 324 324 324 323 323 326 328 327 326 324 324 322 325 326 324 321 325 326 324 322 320 319 317 315 311
327 327 327 327 326 326 326 326 325 325 325 325 327 328 327 327 322 328 326 326 326 323 324 325 325 323 322 320 317 314 311 309
325 326 327 327 328 327 327 327 326 327 327 328 327 326 327 328 327 328 327 327 326 322 319 320 324 322 320 319 314 312 309 308
324 324 325 326 328 328 328 329 329 329 329 329 329 328 328 328 330 328 329 327 324 323 319 319 323 321 318 316 314 309 308 307
321 323 325 324 324 327 329 329 329 329 328 329 330 330 329 328 323 328 328 327 325 325 324 322 321 318 316 314 309 307 306 303
321 321 323 325 326 326 328 329 330 329 330 329 330 330 329 325 325 328 328 326 325 324 322 320 318 315 312 309 306 305 303 301
321 323 324 325 327 328 327 328 325 327 327 330 331 330 329 327 328 328 326 325 324 323 319 317 315 311 308 306 305 304 300 300
322 323 324 326 328 331 330 330 329 329 330 330 331 330 329 328 327 325 325 323 321 317 316 313 310 307 306 304 304 301 300 300
317 323 324 326 329 331 330 332 333 332 331 331 329 328 326 324 323 321 319 317 316 314 311 308 306 305 305 304 302 300 299 300
316 319 328 329 330 329 327 328 329 330 327 325 324 323 320 318 316 315 314 312 311 309 308 306 305 304 303 303 300 299 298 298
319 322 328 328 329 327 326 324 325 323 321 320 319 317 315 314 312 309 307 306 305 304 303 303 302 301 299 299 298 298 298 298
322 327 326 327 327 325 324 321 319 317 313 311 313 313 311 310 309 306 304 303 302 301 300 299 299 299 299 298 297 297 297 295

GFSFLT1_925_thetae_054.txt.gz
Theta_e
318 318 317 318 316 316 316 317 316 316 314 314 314 317 318 319 317 317 322 323 323 324 324 325 324 324 323 322 321 320 319 319
318 317 316 317 317 315 316 316 315 315 315 316 316 318 317 318 316 317 318 319 321 323 324 324 324 324 323 322 321 321 320 319
318 317 315 317 316 315 315 315 314 315 316 316 316 314 316 315 316 316 316 313 314 316 320 324 324 324 324 323 322 321 320 316
320 318 315 316 315 316 315 315 314 316 318 316 315 314 316 316 317 318 315 317 319 320 323 323 325 325 325 323 322 322 320 315
321 319 316 316 316 315 316 316 314 315 316 316 313 314 315 317 320 321 320 320 321 321 323 324 324 324 326 325 323 322 321 316
321 320 318 317 317 315 315 316 315 315 315 318 315 314 315 317 321 323 320 320 320 322 323 325 325 323 324 325 323 322 321 319
322 320 319 318 317 316 314 314 315 315 314 317 318 316 316 319 322 323 322 320 321 323 324 325 325 324 324 325 323 322 320 317
323 321 320 319 317 316 316 314 314 314 314 316 317 317 316 319 321 322 322 320 321 325 325 325 323 321 323 322 324 322 319 317
324 321 321 320 319 317 317 317 315 314 314 315 315 316 318 321 324 324 323 321 320 322 325 325 323 322 324 324 322 320 318 315
325 323 321 321 321 320 319 319 318 318 318 318 319 320 321 324 326 325 325 324 322 323 324 325 322 325 324 322 321 319 316 313
324 325 324 323 322 322 322 321 321 321 322 322 322 322 322 324 326 327 326 324 325 322 324 323 324 322 323 321 319 315 312 310
323 325 325 326 325 324 324 324 324 324 324 324 324 324 324 325 325 326 327 326 326 325 325 321 319 321 321 319 317 313 311 308
322 322 325 326 326 326 326 326 325 325 325 326 325 326 326 326 326 327 327 325 326 325 324 322 320 320 318 316 313 312 308 306
318 319 320 322 323 324 326 327 327 327 327 328 327 327 327 327 327 328 326 323 326 325 324 323 321 318 316 314 312 309 305 305
318 319 320 322 323 323 324 328 328 328 328 327 327 327 327 327 326 324 324 325 326 324 323 321 319 316 315 312 307 306 304 303
319 320 320 323 326 325 324 326 328 328 328 326 328 329 328 328 325 323 327 326 324 322 318 315 314 313 310 307 305 304 303 301
316 321 321 326 328 327 327 326 327 326 326 326 326 323 325 321 320 324 322 320 319 317 314 313 310 308 306 305 304 303 301 300
313 319 324 327 327 328 327 328 329 329 327 325 322 322 320 319 319 318 317 314 312 310 309 307 306 305 304 303 302 300 299 299
311 318 324 327 326 325 324 325 324 322 321 318 317 316 316 315 315 313 311 310 309 307 305 305 304 303 301 299 299 298 298 297

GFSFLT1_925_thetae_057.txt.gz
Theta_e
319 318 318 318 319 319 319 318 316 318 322 321 321 322 322 322 321 321 323 322 324 323 324 324 324 323 322 321 321 319 319 319
318 318 318 317 317 318 318 318 316 316 319 320 321 320 321 320 319 320 322 322 323 324 324 323 324 324 324 324 322 320 319 318
317 316 317 317 316 316 317 317 316 316 315 317 316 318 319 319 318 317 319 320 321 322 323 324 324 324 323 323 322 320 319 319
317 316 315 317 317 316 316 316 316 315 315 315 315 316 317 317 317 317 317 317 316 314 316 319 321 324 323 323 322 320 320 319
319 318 314 316 316 316 315 315 316 315 315 316 315 315 315 315 316 316 316 316 316 315 319 320 321 323 324 324 324 323 321 319
320 318 315 315 316 316 315 315 315 315 315 316 316 315 314 314 315 315 314 315 316 316 317 320 321 322 323 324 324 323 321 319
320 319 317 315 316 315 315 316 315 315 314 315 317 316 315 314 314 316 316 317 318 317 318 319 320 322 324 324 324 324 323 322
321 319 317 316 316 316 315 315 315 315 313 314 316 317 315 314 314 315 316 319 321 322 321 320 320 323 324 322 322 324 323 323
322 320 318 317 316 316 315 314 314 315 315 314 315 316 316 314 314 315 317 319 321 322 322 320 321 325 324 323 320 323 323 323
323 321 319 318 317 316 315 315 314 314 315 314 314 314 316 316 316 316 317 319 320 321 323 321 320 323 324 322 322 323 323 322
323 322 321 319 318 317 316 315 315 314 314 314 314 314 315 316 316 317 319 321 323 323 323 322 322 324 324 321 323 323 321 318
323 323 323 321 320 319 318 316 316 316 315 314 314 314 315 316 318 319 320 324 325 324 324 324 323 324 323 324 323 321 318 316
321 322 324 322 321 320 320 319 318 318 317 317 316 317 318 319 320 321 322 323 325 325 325 324 321 323 323 320 320 318 315 311
319 320 322 323 323 322 321 321 321 320 321 320 321 322 322 322 322 323 323 324 324 323 325 325 324 322 319 319 318 316 313 310
316 318 321 323 324 324 324 323 322 322 322 323 323 324 324 323 324 324 324 325 324 322 325 324 323 321 319 316 314 311 310 309
315 317 318 319 321 324 325 325 325 324 324 324 324 325 325 325 325 325 325 324 324 325 324 323 322 320 317 313 312 309 307 305
313 317 318 319 319 320 321 323 325 325 325 325 325 325 325 326 325 325 323 323 324 322 322 320 318 316 314 312 310 306 305 303
311 316 319 321 323 323 321 321 322 326 326 325 325 326 325 323 324 324 321 319 320 319 318 317 314 312 310 308 306 304 303 301
310 310 318 321 325 327 325 324 324 325 325 324 323 323 322 319 319 317 315 315 317 315 312 311 309 307 306 304 303 302 300 299

GFSFLT1_925_thetae_063.txt.gz
Theta_e
319 318 319 321 322 322 322 321 319 320 319 323 321 323 320 322 317 315 320 317 315 316 316 316 317 317 318 319 318 317 316 315
318 318 319 319 321 321 321 322 321 319 319 321 319 322 320 321 321 316 322 318 316 316 316 317 316 317 317 318 318 318 318 317
319 318 319 318 319 319 320 321 321 321 320 321 319 320 321 321 321 322 320 320 316 317 317 317 317 317 319 318 318 319 319 318
320 318 318 319 318 319 319 319 320 321 320 319 320 321 321 322 322 318 316 320 316 316 317 317 318 320 321 320 320 321 321 319
321 319 318 318 319 319 319 318 318 319 319 318 320 320 319 320 320 320 319 317 318 320 318 318 321 320 322 322 320 322 322 321
322 320 318 318 317 318 319 318 318 318 320 318 318 320 319 319 320 320 321 319 318 316 316 318 319 318 317 319 321 322 322 321
323 320 318 317 317 318 318 318 318 317 318 318 317 317 318 318 318 319 318 317 315 315 315 317 317 316 318 319 320 321 322 321
324 321 318 316 316 318 317 317 317 317 317 317 316 317 316 317 318 317 318 317 316 316 316 317 317 317 318 319 319 320 321 322
325 322 319 317 316 317 317 316 317 317 316 316 316 316 316 316 317 316 316 317 317 316 316 315 315 315 318 320 321 321 321 321
325 323 321 319 317 316 316 316 316 316 316 316 316 316 316 316 315 315 314 315 315 316 315 315 315 315 317 320 320 321 321 321
324 324 322 320 318 317 316 316 316 316 316 316 315 315 315 316 316 315 315 315 315 314 314 314 315 316 317 318 320 321 321 321
324 324 322 321 319 317 316 316 316 317 316 316 316 315 315 315 316 316 316 316 315 316 315 315 315 314 315 318 321 322 320 320
323 323 322 321 320 318 317 317 316 316 316 316 316 316 315 314 315 315 316 316 316 316 316 317 316 314 315 320 320 321 321 320
320 323 323 322 321 320 318 317 317 316 316 315 316 316 316 315 315 314 314 316 316 317 317 317 317 315 317 317 319 320 319 320
317 321 323 323 322 321 320 319 318 317 316 316 315 315 315 315 315 315 315 315 315 316 317 317 317 317 318 319 321 322 319 319
315 317 321 323 323 322 321 320 319 318 317 317 316 316 315 315 315 315 315 315 316 316 317 318 319 319 320 319 320 320 318 317
317 315 317 320 322 322 322 321 320 319 318 318 318 317 317 316 316 315 315 316 316 317 318 319 320 320 320 320 321 320 318 314
317 315 315 318 320 321 322 322 321 320 320 320 319 319 318 318 318 319 319 319 319 319 320 321 321 321 320 319 319 316 314 312
316 315 315 314 316 318 321 322 322 321 321 321 321 321 320 320 320 321 321 321 321 321 321 321 321 321 320 319 312 311 309 305

GFSFLT1_925_thetae_066.txt.gz
Theta_e
323 322 322 324 323 324 323 322 321 322 322 322 323 322 320 319 321 322 320 318 318 318 319 320 320 322 321 320 320 320 319 318
323 321 320 322 322 323 322 321 319 322 322 322 322 322 322 319 322 322 321 321 320 320 320 320 320 322 323 322 322 321 320 319
324 322 321 322 322 322 322 321 322 321 320 320 321 322 322 320 319 318 320 321 316 317 321 319 320 321 322 323 323 322 322 320
326 323 321 321 322 322 322 321 321 322 321 322 320 321 319 321 320 318 318 321 316 315 318 320 322 322 322 322 323 323 323 323
328 325 322 323 321 322 323 321 321 321 320 321 319 319 318 322 321 319 320 320 319 316 319 322 323 320 323 323 324 323 323 323
329 326 323 322 322 321 323 322 320 320 320 320 319 318 318 320 322 321 320 321 319 317 317 319 318 319 320 322 323 324 324 321
329 326 324 322 321 322 322 322 321 319 320 320 319 320 320 321 321 322 320 320 318 317 317 318 318 318 319 321 319 320 322 324
330 328 326 322 321 321 321 322 322 321 319 319 319 319 319 318 320 320 320 318 318 318 319 318 317 317 316 317 319 323 323 323
330 329 327 323 321 322 321 322 322 321 321 321 320 318 318 319 319 319 319 320 319 319 318 317 317 317 320 321 321 322 323 323
330 329 327 325 322 322 322 322 322 322 321 320 320 319 319 319 320 319 319 319 319 319 318 316 316 319 321 321 321 322 322 323
329 329 328 326 323 321 322 321 322 322 322 322 322 321 320 320 320 320 319 319 319 319 320 320 320 319 320 320 321 321 322 323
329 329 328 327 325 322 322 321 321 321 322 322 321 321 321 321 321 320 320 319 319 319 319 319 319 319 319 320 321 321 322 323
328 329 328 327 326 324 322 321 321 321 321 321 321 321 321 321 320 320 320 320 320 320 319 319 319 319 319 320 320 320 321 320
324 328 329 328 327 326 324 322 321 321 321 321 321 321 321 320 320 320 320 320 320 320 320 320 319 319 319 319 320 320 317 319
323 325 327 327 327 326 325 324 323 322 321 321 321 321 321 321 321 320 320 320 320 319 320 320 320 320 320 320 320 319 317 316
322 322 325 327 327 326 326 325 324 323 322 321 321 321 321 321 321 320 320 320 319 319 320 320 320 320 321 321 320 320 319 317
321 322 322 323 326 326 326 325 325 324 323 323 322 321 321 320 320 320 320 320 320 319 319 320 320 320 319 319 319 321 319 317
321 321 322 322 322 324 326 326 326 325 324 324 323 323 322 321 321 320 320 320 320 319 319 320 320 320 320 320 319 319 319 318
319 319 320 319 318 320 324 325 326 326 325 324 323 323 323 323 322 321 321 321 321 321 321 321 321 322 321 320 320 320 316 315

GFSFLT1_925_thetae_069.txt.gz
Theta_e
328 326 326 326 327 325 324 323 323 323 323 323 323 322 323 322 318 322 323 323 323 322 322 322 322 321 321 320 320 321 321 320
328 325 325 326 324 324 324 323 322 322 323 324 322 322 321 322 320 321 319 322 321 320 320 319 321 321 321 321 322 322 322 320
329 326 324 324 325 324 324 323 322 322 324 324 323 321 321 319 315 320 321 320 320 318 319 320 320 323 324 323 323 324 323 322
330 328 325 324 324 325 325 324 323 323 324 323 322 322 321 320 320 321 322 322 322 320 321 322 321 322 325 325 325 325 324 324
331 329 326 325 324 325 325 324 324 322 323 323 322 323 323 321 319 321 321 323 321 321 323 320 322 322 324 325 325 325 323 322
331 329 326 326 324 324 324 324 324 324 324 323 322 321 322 322 320 320 320 320 322 320 321 319 318 324 324 324 324 324 324 321
331 329 327 324 326 324 325 323 323 323 324 323 321 321 322 320 322 321 321 321 322 321 317 316 318 320 323 320 321 321 321 321
331 330 329 325 325 326 325 325 323 322 322 322 324 323 319 319 321 323 321 321 322 321 320 317 318 318 319 319 319 318 321 320
332 330 329 326 325 325 325 324 324 322 321 322 323 322 320 320 320 323 322 321 320 320 320 318 317 317 318 319 318 319 318 320
331 331 329 327 325 325 325 324 325 324 322 322 322 323 323 323 322 322 322 321 320 319 319 319 319 319 320 321 321 320 320 319
331 331 330 328 326 324 325 325 324 324 324 323 322 323 323 323 321 322 322 321 320 320 320 320 320 320 320 320 319 321 321 322
330 331 330 329 327 325 325 325 325 324 324 324 323 324 323 323 323 323 322 322 322 321 321 320 320 320 320 321 321 321 322 322
330 331 331 330 329 327 325 325 324 324 325 325 325 324 324 324 323 324 322 323 323 322 322 322 322 322 321 321 322 322 322 322
327 330 331 331 330 329 327 326 325 324 324 325 325 325 326 326 325 325 324 324 323 323 322 322 322 322 322 322 323 322 322 322
324 327 329 330 330 330 329 327 326 324 324 324 325 325 325 326 325 325 325 324 324 323 322 322 322 322 322 322 322 322 322 322
323 323 326 328 329 329 329 328 327 326 325 324 324 325 325 325 325 325 324 324 324 324 323 323 323 323 323 322 322 322 322 322
322 323 323 324 327 328 329 329 329 327 327 326 325 325 325 325 325 325 324 324 324 324 323 324 323 323 323 322 322 323 323 322
322 322 322 322 323 324 328 328 328 328 328 327 326 326 325 325 325 325 325 325 324 324 324 323 323 323 323 322 321 321 322 322
322 322 321 320 321 321 321 325 328 328 328 328 327 327 326 326 325 325 325 325 325 325 324 324 324 323 323 322 321 320 320 320

GFSFLT1_925_thetae_072.txt.gz
Theta_e
330 328 328 327 328 326 325 324 325 323 324 323 323 323 322 322 322 322 320 319 323 320 324 324 324 325 323 322 321 319 319 319
330 328 327 327 328 326 325 324 324 324 324 323 323 323 321 321 321 321 318 319 321 324 323 323 323 323 322 321 320 321 322 321
330 328 327 326 325 325 324 324 324 323 324 323 323 323 322 320 319 319 321 323 323 323 322 323 322 321 320 321 321 322 322 320
331 329 327 325 324 325 323 324 323 323 324 323 323 322 322 321 319 321 322 322 322 321 321 321 321 321 320 321 322 323 322 322
331 329 328 326 325 325 325 324 323 323 324 323 322 322 321 319 318 319 317 319 321 321 320 320 318 321 324 324 323 323 324 322
331 330 328 326 326 325 325 324 324 324 324 323 322 322 321 319 316 316 321 321 322 321 321 322 320 321 323 324 323 323 323 322
331 330 328 327 326 325 326 325 325 323 324 323 323 323 322 321 318 318 320 322 322 322 322 323 320 320 322 323 322 322 323 321
331 331 329 327 327 325 325 325 324 325 324 324 323 324 323 322 319 318 320 320 321 322 321 323 320 323 323 323 323 323 320 320
331 331 329 326 328 326 325 325 324 324 325 324 323 323 322 323 321 319 319 320 321 321 322 321 320 318 318 320 321 319 319 319
331 331 329 327 327 328 326 326 324 324 323 324 324 324 324 323 322 322 321 320 320 321 322 321 319 316 317 318 318 318 318 319
331 331 330 328 326 327 328 326 325 324 322 323 323 324 323 322 321 322 324 323 321 320 321 322 320 319 317 318 318 318 320 320
331 331 330 329 327 327 327 327 326 326 324 322 322 323 323 324 323 322 322 324 323 322 320 320 320 319 319 320 320 321 321 321
331 330 331 330 329 327 327 327 326 326 326 324 323 323 323 324 324 323 323 323 323 322 321 320 320 320 320 320 320 320 320 320
330 331 331 331 330 328 327 327 327 327 326 326 325 324 324 324 324 324 323 323 323 323 322 321 321 321 321 320 320 320 320 320
325 329 330 331 331 331 329 327 327 326 326 327 326 327 325 325 325 324 324 324 324 323 323 322 322 322 322 322 321 321 321 321
324 324 326 329 331 332 331 329 328 327 326 326 326 327 327 327 326 326 326 325 325 324 324 324 323 323 323 323 323 322 322 322
323 323 322 323 328 330 331 331 330 328 327 326 325 326 327 327 327 327 327 326 326 325 325 324 324 323 323 322 322 322 322 322
323 324 324 323 322 323 324 330 331 330 329 328 327 326 326 327 327 327 327 326 326 326 325 325 325 324 324 323 323 322 322 323
321 322 324 324 324 323 324 325 321 330 330 329 328 328 327 326 326 326 326 326 326 325 325 325 325 324 324 324 324 323 322 321

GFSFLT1_925_thetae_075.txt.gz
Theta_e
326 328 329 329 329 327 324 323 324 324 324 326 326 326 325 325 325 325 324 320 321 317 322 322 324 321 322 322 321 320 319 318
327 327 328 328 328 326 325 324 322 324 324 324 324 323 323 323 322 323 322 320 320 321 323 322 324 323 323 322 321 320 319 319
326 326 326 327 326 326 325 324 323 324 324 324 323 323 322 323 322 322 320 321 322 323 324 322 324 324 323 321 321 321 320 319
326 326 324 326 326 325 324 323 323 324 323 323 323 322 321 321 322 321 320 321 322 322 320 322 323 321 322 321 320 321 321 320
326 325 324 323 324 324 323 323 323 324 324 323 323 322 321 320 321 320 320 320 321 323 323 324 323 322 322 320 321 321 321 321
327 325 324 323 323 324 323 324 323 324 324 323 322 322 321 320 319 320 320 322 322 322 322 322 322 321 320 320 321 320 321 321
327 325 324 324 324 324 324 323 323 324 324 323 322 322 321 320 319 319 320 321 322 322 321 321 321 321 320 319 320 322 323 322
327 326 324 324 324 324 325 323 323 324 324 323 322 322 321 319 318 317 319 320 322 322 321 321 320 319 321 319 322 323 322 321
327 326 324 324 324 324 324 324 324 324 324 323 323 322 321 319 317 316 316 319 321 321 321 322 323 322 320 322 321 322 321 319
327 326 324 325 324 323 324 323 323 324 323 324 323 323 322 321 319 316 316 318 320 321 322 322 322 323 322 320 322 322 321 319
328 326 324 326 325 324 324 324 323 323 324 324 323 323 323 322 322 319 317 317 319 320 321 321 321 321 321 322 321 320 320 320
328 326 325 325 326 325 324 324 324 323 323 324 324 323 323 322 322 321 320 318 318 319 319 321 321 321 320 320 319 319 319 319
327 327 326 324 325 326 325 325 324 323 323 322 323 323 324 323 322 321 322 322 320 320 320 320 321 321 320 319 318 318 318 318
325 327 326 325 325 325 326 326 325 324 323 322 322 322 322 323 323 322 321 321 323 322 321 320 320 320 320 319 318 318 319 319
324 325 327 326 326 325 325 326 326 325 324 323 322 321 321 322 322 323 322 322 321 322 323 321 321 320 319 319 318 318 319 319
322 322 321 323 327 326 325 325 326 326 325 325 324 323 323 322 322 323 323 323 322 322 322 322 321 320 320 319 319 319 319 319
322 323 323 322 322 323 324 326 326 326 325 325 325 325 324 324 323 323 323 323 323 323 323 322 322 322 321 320 320 320 319 319
322 321 320 318 317 318 321 323 323 326 326 325 325 325 326 326 325 324 324 324 324 323 323 323 322 322 322 322 322 321 321 321
319 316 313 310 310 316 317 316 315 316 319 322 325 324 324 325 326 326 326 325 325 325 324 324 324 323 323 323 323 323 321 321

GFSFLT1_925_thetae_078.txt.gz
Theta_e
326 328 329 329 329 327 326 323 326 324 327 328 328 329 328 328 328 327 327 326 319 312 312 314 310 312 318 319 317 317 319 319
327 327 328 328 327 326 325 323 323 323 324 326 326 326 326 326 326 326 327 326 322 314 313 318 314 314 319 320 321 318 319 318
326 326 327 326 325 325 324 323 323 322 324 324 324 325 325 325 325 324 326 324 323 319 315 322 320 316 318 319 321 319 318 318
327 325 325 325 325 324 324 323 322 323 322 324 324 323 323 323 323 323 323 322 322 321 321 322 323 319 321 321 321 320 319 318
327 325 324 324 324 324 324 323 323 324 323 322 322 322 322 322 323 323 322 321 321 321 323 322 324 324 322 322 321 320 320 318
327 325 324 324 324 324 324 323 324 324 323 323 322 322 322 322 322 322 321 321 321 322 322 323 323 323 323 322 321 321 321 319
326 324 322 322 323 323 323 323 323 324 323 322 323 321 321 321 321 320 320 320 321 322 323 321 322 321 321 319 321 321 321 320
324 324 322 321 322 322 323 323 323 323 324 323 322 322 321 320 320 320 320 320 321 322 322 323 323 323 321 319 320 321 321 321
325 324 322 322 322 323 323 323 323 323 324 323 322 322 321 321 320 319 319 320 320 320 322 322 322 322 321 320 321 320 320 321
325 324 323 323 322 323 323 323 322 322 324 323 322 322 321 320 320 319 319 319 320 321 322 322 321 320 320 321 321 320 320 321
325 324 323 323 323 323 323 323 323 323 323 323 323 322 321 320 320 318 317 318 319 320 321 322 321 320 320 320 320 320 320 320
326 324 324 323 322 322 322 322 323 323 323 323 323 323 322 321 320 319 316 316 317 319 320 321 321 322 322 322 321 321 321 321
325 324 324 324 323 322 322 322 322 322 323 323 323 323 323 322 322 321 319 316 316 317 318 320 321 321 321 321 322 321 321 321
324 323 323 324 324 323 322 323 322 322 322 322 323 323 323 322 322 322 321 320 318 316 317 318 319 320 321 320 320 319 319 319
322 322 322 323 324 325 324 323 323 323 322 322 322 322 322 322 322 322 321 321 321 320 318 318 318 318 319 319 319 319 318 318
323 321 321 322 322 323 324 325 324 323 323 322 321 321 321 322 322 322 322 321 320 321 321 321 320 319 319 319 319 319 318 318
317 316 314 315 318 319 319 321 322 325 323 323 322 322 321 320 321 321 321 322 322 321 320 320 321 321 320 320 319 319 318 318
312 310 308 308 310 311 311 312 314 321 323 323 323 323 322 322 321 321 320 321 322 322 321 321 321 321 321 321 320 320 319 318
306 305 303 302 305 306 306 306 307 308 309 310 311 312 314 319 323 322 322 321 322 322 322 321 321 321 321 321 321 321 319 319

GFSFLT1_925_thetae_081.txt.gz
Theta_e
324 325 327 328 329 327 326 325 323 325 325 328 330 329 326 326 329 328 326 326 326 324 323 319 316 315 315 316 318 316 320 321
324 326 327 327 327 325 324 323 322 323 324 325 327 328 328 328 329 328 327 326 324 322 319 315 313 312 313 314 318 316 319 320
325 326 326 325 325 324 323 324 321 323 325 325 326 327 327 328 328 328 326 324 321 318 316 313 312 312 313 316 317 316 318 319
326 327 326 324 323 322 322 323 322 323 324 324 324 326 325 325 327 326 326 325 322 316 316 314 314 314 317 317 317 317 318 317
326 327 326 324 323 323 322 323 322 322 323 324 324 324 324 324 324 324 325 324 322 317 315 318 314 316 318 319 320 319 318 317
326 326 326 324 323 323 323 322 322 322 322 323 324 323 323 323 323 323 323 323 323 321 317 319 320 317 319 320 320 321 319 318
325 324 325 323 322 322 322 322 323 322 322 322 322 322 322 322 323 322 322 323 323 322 322 322 321 322 317 318 320 321 319 319
325 324 324 322 321 322 322 322 323 323 322 322 321 321 321 322 322 322 322 322 321 321 320 321 322 321 323 322 322 321 320 320
325 323 323 322 322 321 322 322 323 324 323 321 321 320 320 320 322 322 321 321 321 321 322 322 322 322 322 322 322 321 321 321
325 323 322 322 321 321 322 322 323 323 324 322 321 321 321 320 320 320 321 321 320 320 321 322 322 321 322 321 321 320 318 318
324 324 321 321 321 321 322 322 323 323 323 323 323 322 321 321 320 320 320 320 320 320 321 322 321 322 322 322 322 321 319 319
324 324 322 322 322 322 322 322 322 322 323 323 323 322 322 322 321 320 319 319 319 319 320 320 321 322 321 321 321 321 320 320
324 323 322 322 321 321 321 321 322 322 323 323 323 323 322 322 321 321 320 319 318 318 319 320 321 321 321 321 320 320 320 320
322 323 322 321 321 321 321 321 321 322 322 322 323 322 322 322 322 321 320 319 318 317 318 319 319 320 321 321 321 321 321 321
323 322 323 323 323 322 322 322 322 321 322 322 322 322 322 321 322 322 322 321 320 318 316 316 317 318 319 320 321 321 321 320
317 318 319 320 320 321 323 323 323 322 322 321 321 322 322 322 322 322 322 321 321 321 320 318 317 317 317 318 319 319 319 319
312 312 313 313 312 312 312 313 318 322 322 322 322 321 321 321 322 322 322 322 321 321 321 320 320 318 318 318 318 318 318 318
307 306 307 306 306 306 305 307 309 312 312 313 315 320 321 321 321 320 320 321 321 321 320 320 320 320 320 320 320 319 318 318
302 301 301 301 301 301 301 302 303 303 303 303 303 307 309 312 317 321 320 320 320 320 321 321 320 320 320 320 320 320 319 318

GFSFLT1_925_thetae_084.txt.gz
Theta_e
314 323 325 326 329 330 329 328 328 328 328 329 329 329 328 325 325 325 325 326 327 327 326 324 326 325 323 319 318 319 320 319
314 323 325 326 327 328 327 325 324 326 326 328 329 328 327 326 326 327 326 325 326 326 324 325 324 323 321 318 318 318 319 319
322 323 324 325 323 324 324 323 322 323 324 324 326 328 327 327 326 327 326 324 326 324 323 323 322 319 319 317 317 317 318 319
325 325 324 324 322 322 323 322 321 322 323 324 324 325 326 326 328 326 325 324 324 321 323 322 318 317 318 316 317 317 318 319
325 325 324 325 323 322 322 323 321 321 322 324 324 325 325 324 326 325 324 325 322 320 321 319 316 314 315 316 317 316 319 317
325 325 324 325 323 322 321 323 321 322 323 323 324 324 324 325 325 325 324 323 321 317 317 315 314 313 314 315 317 316 318 318
324 323 325 324 322 320 321 321 321 321 322 322 324 324 324 324 323 323 323 322 321 319 316 313 313 314 316 314 316 318 316 318
324 324 325 323 321 320 320 321 320 321 322 321 322 323 323 323 323 322 323 323 322 321 317 315 315 316 315 315 317 318 319 318
324 324 324 323 322 320 320 319 320 321 321 321 321 321 322 323 322 322 322 322 322 322 321 319 316 318 317 318 319 320 320 320
324 323 324 322 321 321 320 320 321 320 322 320 320 320 319 320 322 322 322 323 323 323 322 321 321 319 315 320 320 318 319 320
323 323 323 322 321 321 320 321 322 322 322 322 320 320 319 319 319 321 322 322 322 322 322 322 320 320 320 316 320 321 320 321
324 322 321 322 321 320 320 321 322 322 322 322 321 320 321 320 320 320 320 320 321 321 321 321 321 321 321 321 321 320 321 321
323 321 321 320 320 319 319 321 322 322 322 323 322 322 321 321 320 321 320 320 320 320 320 320 321 321 321 321 321 321 321 320
322 322 321 321 320 319 319 321 321 321 322 322 321 322 322 322 321 321 320 319 319 319 319 319 320 320 321 321 321 321 321 321
323 322 321 321 321 320 320 321 321 321 322 322 322 321 321 321 321 321 321 320 319 317 317 318 318 319 319 320 320 320 320 320
317 318 319 319 320 321 321 321 321 321 321 322 322 322 322 321 321 321 321 321 320 320 318 317 317 317 318 318 319 319 320 320
310 310 311 311 311 311 311 312 318 321 321 321 320 321 321 322 322 321 321 321 321 320 320 320 319 318 318 317 317 317 318 318
305 305 305 303 303 303 304 305 308 310 310 309 312 317 320 320 320 321 321 321 322 321 321 321 321 320 319 319 319 319 317 317
299 300 299 299 299 299 299 299 299 299 299 299 302 304 306 309 313 314 317 318 319 320 321 321 320 317 318 319 320 319 317 318

GFSFLT1_925_thetae_087.txt.gz
Theta_e
315 314 319 325 328 329 330 330 332 330 329 328 327 327 326 327 327 324 325 326 327 328 326 326 326 325 320 321 320 321 321 321
315 313 319 325 327 328 328 328 329 328 328 328 328 327 326 326 326 326 325 326 327 328 327 327 325 323 321 319 320 320 321 320
316 320 323 324 326 327 327 327 327 327 327 328 328 328 327 326 326 325 325 325 327 327 326 325 323 323 320 318 319 320 320 320
317 323 324 325 325 326 325 326 325 324 325 325 326 326 327 327 326 327 326 326 326 326 326 324 322 321 320 318 318 320 319 319
317 322 325 325 325 324 325 324 325 324 324 324 324 325 326 326 326 326 326 326 325 325 324 323 321 320 320 319 317 319 320 320
318 323 325 325 324 322 323 323 322 322 322 323 324 324 325 325 326 325 323 323 320 320 322 321 320 319 319 319 317 318 319 320
319 325 326 326 323 322 321 321 322 321 321 322 323 324 324 325 324 322 320 320 320 321 322 321 318 317 318 318 317 317 318 320
326 327 327 326 323 322 321 321 322 322 321 322 323 324 324 324 324 323 321 319 320 319 318 317 316 316 315 316 317 316 317 319
324 327 327 326 323 321 322 322 322 321 321 321 322 323 323 324 323 323 323 321 319 319 317 315 314 313 312 314 314 316 317 317
322 326 327 325 323 321 321 321 321 321 320 321 321 321 322 322 323 323 322 322 322 322 319 317 316 314 310 309 317 316 315 316
321 324 326 324 324 321 321 320 321 320 320 320 320 320 320 321 322 322 322 322 322 321 321 321 319 317 313 311 315 316 315 313
325 325 325 324 322 321 320 320 320 320 321 321 320 319 319 319 320 320 322 322 322 321 321 321 320 319 316 315 314 317 320 319
325 322 322 322 321 320 320 320 320 320 320 322 321 320 321 320 320 320 320 321 321 322 322 322 321 321 320 319 316 316 318 320
323 322 321 321 320 320 320 320 322 322 321 322 321 321 321 321 321 321 320 320 320 320 320 321 320 320 320 321 321 319 318 318
319 321 321 321 320 320 320 322 322 322 323 323 322 321 320 320 321 321 321 320 320 319 320 321 321 321 321 320 321 320 320 321
310 312 315 318 320 320 320 321 322 322 322 322 322 322 322 322 321 321 320 319 318 319 319 319 320 320 320 321 320 320 320 320
304 304 306 307 309 310 310 314 322 321 321 321 321 321 322 322 321 321 321 320 319 318 318 318 318 318 318 318 318 319 319 319
300 300 300 301 301 302 304 304 306 306 306 307 311 316 316 317 320 321 321 321 321 320 320 319 318 316 316 316 317 317 318 318
296 296 297 296 296 296 296 297 298 298 298 298 300 302 304 306 310 311 313 315 316 316 314 316 313 306 308 314 317 317 316 315

GFSFLT1_925_thetae_090.txt.gz
Theta_e
319 319 319 320 325 329 333 337 337 335 335 334 334 330 330 329 330 329 329 327 327 328 328 328 327 325 325 325 326 326 326 325
319 319 319 320 324 329 332 336 334 334 333 333 333 330 329 327 327 328 328 327 328 328 328 327 326 325 324 325 325 325 325 324
319 319 319 324 325 329 331 334 332 334 334 334 331 329 329 327 327 327 327 326 327 327 327 326 325 324 324 325 325 325 325 324
318 319 319 324 327 329 331 333 332 334 333 332 331 329 328 327 327 326 326 326 327 328 326 326 324 323 324 324 325 325 324 323
318 318 320 324 327 329 330 332 333 332 331 331 330 329 328 328 327 326 326 326 326 327 326 325 324 324 323 324 325 325 324 324
320 319 320 322 327 329 330 332 331 330 330 329 328 327 327 329 328 327 326 326 325 326 325 325 324 324 324 323 324 324 324 324
321 320 320 325 328 327 328 331 331 330 329 327 327 327 326 327 326 325 325 325 325 325 325 325 324 323 323 323 323 324 324 323
326 325 327 327 328 324 327 330 329 328 327 326 326 326 327 327 324 323 320 320 321 322 322 322 322 322 323 323 321 323 323 324
327 326 328 329 326 323 325 327 328 326 325 325 325 326 326 326 324 322 320 320 319 319 319 320 319 320 321 321 321 321 321 322
328 326 328 329 327 323 324 327 328 326 324 324 325 325 325 325 323 323 320 320 319 318 318 318 318 319 320 320 320 319 319 320
329 324 327 329 327 323 324 327 327 324 324 323 324 324 324 325 324 323 322 320 319 319 319 317 317 315 314 315 314 315 317 318
328 327 326 328 326 323 323 325 324 323 323 322 323 322 323 323 323 322 322 322 320 320 320 319 314 313 314 315 312 314 317 318
324 324 326 325 323 323 322 323 322 323 322 322 322 321 322 322 322 322 322 322 322 322 322 319 318 318 319 317 314 313 315 318
313 322 323 323 322 322 322 322 322 323 322 322 322 322 322 323 323 323 324 323 322 321 321 321 320 319 319 319 316 314 312 315
309 309 317 322 322 321 321 322 322 322 322 323 323 323 323 323 323 322 322 323 323 323 322 321 321 320 320 319 318 317 316 316
305 304 306 309 320 321 321 323 323 324 324 322 322 322 322 322 322 322 321 320 322 323 323 323 323 322 321 320 320 320 319 321
300 301 301 302 304 311 312 320 323 323 323 322 323 323 323 323 322 322 322 321 320 320 321 323 323 323 322 322 323 323 322 322
297 298 297 297 298 301 303 304 307 307 307 308 313 316 318 319 322 323 323 323 322 321 320 320 317 316 318 319 319 321 321 321
294 294 295 294 294 295 296 297 298 298 298 299 301 303 305 307 310 310 312 315 315 313 312 311 308 305 308 314 316 316 315 313

GFSFLT1_925_thetae_093.txt.gz
Theta_e
320 320 320 319 319 323 328 335 343 339 338 337 336 336 336 335 333 333 332 331 330 331 330 329 329 328 328 327 327 326 326 326
318 319 320 320 320 323 329 333 343 339 337 335 335 336 334 333 331 330 332 331 329 329 329 329 328 328 327 327 326 326 326 327
318 318 320 320 321 322 328 332 338 338 336 336 337 335 334 332 331 329 329 330 329 329 328 328 328 327 326 325 326 326 325 326
319 319 319 320 321 324 328 331 336 337 337 337 336 335 331 330 329 329 328 328 328 328 327 328 327 326 326 325 326 325 325 325
323 320 320 319 321 325 328 331 336 335 336 336 336 332 331 331 330 329 327 327 327 327 328 328 325 325 325 325 325 325 325 325
325 322 321 319 320 325 329 331 334 335 337 335 335 334 333 331 329 330 327 327 327 327 328 326 326 325 325 325 325 325 325 325
326 324 321 319 320 328 331 332 333 334 335 335 334 333 332 329 330 330 329 327 327 327 327 325 325 324 324 325 324 324 325 325
327 326 323 322 323 330 332 332 333 334 334 334 333 332 330 329 329 330 327 326 326 326 325 325 325 324 324 324 325 325 326 326
329 328 328 327 328 332 329 332 332 333 333 333 331 330 328 329 330 327 324 323 323 325 325 324 324 324 324 324 324 325 325 325
331 329 328 330 331 327 327 331 332 332 332 331 329 328 327 329 327 323 323 321 321 322 324 324 324 324 323 324 324 324 324 324
325 330 328 330 329 325 326 330 331 330 329 329 327 327 327 327 325 322 321 320 319 320 320 320 322 323 323 323 322 323 323 324
318 325 329 330 329 325 325 328 330 329 328 326 326 325 325 326 326 323 321 320 319 319 319 319 321 322 322 322 322 322 322 321
313 314 325 328 327 325 324 328 328 326 326 325 324 325 325 324 324 323 321 319 319 319 319 319 318 319 319 319 319 319 318 316
308 309 311 322 324 324 324 325 324 325 324 324 325 324 324 323 323 322 322 321 319 319 320 318 316 315 315 314 314 315 315 314
305 305 306 308 316 323 323 323 324 324 323 323 324 325 325 324 325 325 323 322 322 321 320 320 318 317 316 317 317 317 316 315
301 302 302 302 304 307 322 323 323 323 323 323 324 324 325 325 325 324 324 325 323 322 322 321 321 320 320 319 319 318 317 315
299 298 298 299 299 301 305 313 322 324 324 323 323 324 323 324 324 323 323 323 323 324 324 324 323 318 320 320 320 319 319 320
296 295 295 295 295 296 298 302 307 309 308 309 314 316 317 318 321 321 321 321 321 321 320 316 314 313 317 320 321 321 322 321
293 292 293 292 293 293 294 296 298 299 299 300 302 304 306 307 307 306 309 311 310 309 308 308 308 309 316 319 320 317 316 315

GFSFLT1_925_thetae_096.txt.gz
Theta_e
320 321 320 321 320 319 325 346 345 343 342 340 340 339 338 339 338 335 336 336 335 333 332 331 330 329 329 329 328 328 327 326
317 320 320 320 321 320 324 340 345 343 342 340 339 338 337 336 337 337 335 333 332 331 331 330 330 329 329 328 327 327 327 325
317 317 320 321 321 321 326 335 345 342 340 339 337 336 336 335 333 334 334 333 331 330 331 330 329 329 328 328 327 326 326 326
319 320 320 320 323 322 325 330 344 342 340 337 336 335 335 335 334 332 331 331 329 328 330 330 329 328 327 327 327 325 326 325
325 324 323 321 324 323 323 327 332 342 338 337 337 338 335 333 332 331 329 328 328 328 329 329 329 328 327 327 327 325 325 325
327 326 325 322 321 325 324 326 330 341 338 337 337 337 333 331 331 330 329 328 329 329 328 328 328 327 327 326 326 325 325 325
327 327 325 323 320 324 327 329 332 339 338 337 339 335 334 333 331 332 330 328 327 326 327 328 327 327 326 326 326 325 324 324
329 327 327 324 322 324 331 331 333 337 336 337 338 335 333 334 331 330 331 328 327 327 326 327 326 326 325 326 325 325 325 324
326 326 330 328 326 333 332 332 333 337 336 337 336 334 333 332 329 330 330 328 326 326 327 326 326 325 325 325 325 325 324 324
322 323 327 329 334 334 332 332 332 335 335 334 333 333 330 328 329 329 326 324 325 326 326 326 325 325 325 325 325 324 323 324
317 319 319 328 330 329 329 331 333 334 333 333 331 329 328 328 328 325 324 322 323 322 323 324 325 325 324 324 325 324 323 324
312 311 313 316 328 326 326 329 330 331 331 330 328 327 327 327 326 323 323 322 321 320 321 323 324 324 324 324 325 324 324 324
308 306 306 307 313 326 325 326 328 329 329 327 326 326 326 327 325 322 322 321 320 319 320 321 322 324 324 324 324 324 324 324
305 303 303 303 304 310 325 325 326 326 326 325 325 325 325 325 324 323 322 320 319 319 319 320 321 321 321 322 323 323 323 323
302 301 300 299 300 302 306 323 324 324 324 324 325 324 324 323 323 323 322 320 319 319 319 319 320 321 320 320 320 322 322 321
300 298 298 297 297 297 300 304 322 323 323 323 324 325 324 324 325 323 323 321 320 319 319 319 319 318 317 316 316 316 315 316
296 295 295 295 294 295 296 298 304 323 322 323 324 324 326 325 325 325 324 323 322 322 320 320 319 316 317 316 317 316 317 318
293 292 292 292 292 292 293 294 298 304 310 312 317 317 320 320 322 322 322 318 318 315 314 314 309 309 314 318 318 318 318 317
290 290 290 290 290 290 291 292 293 295 297 300 303 306 307 308 311 309 311 311 308 306 304 304 305 304 310 314 317 317 313 310

GFSFLT1_925_thetae_099.txt.gz
Theta_e
317 317 318 319 319 319 321 342 345 345 344 344 343 341 340 340 340 340 338 338 337 336 335 334 333 332 330 329 328 328 328 328
314 315 317 318 319 319 319 343 344 344 343 342 340 339 339 339 337 337 337 337 337 336 334 333 332 331 330 329 328 328 328 327
311 313 314 316 319 320 321 344 344 343 343 341 340 339 338 337 338 336 335 334 334 333 332 331 331 330 329 328 327 327 327 326
310 312 313 314 319 320 330 344 343 342 341 339 338 338 337 336 336 337 336 334 332 331 331 330 330 330 329 328 328 327 327 326
317 321 321 320 319 320 331 344 343 341 340 338 338 336 335 335 335 334 334 333 332 331 330 330 330 330 329 328 327 327 326 325
324 323 322 324 323 322 332 343 342 340 339 338 336 335 334 334 334 333 332 331 331 330 330 329 328 329 328 327 327 326 326 325
323 323 323 324 324 321 324 341 342 340 339 337 336 335 335 332 332 331 331 329 328 328 327 327 328 328 328 327 326 326 326 325
320 320 320 321 322 322 324 328 340 339 337 336 336 335 335 333 332 330 329 329 328 328 327 328 328 327 327 327 326 326 325 325
316 316 317 317 325 324 327 335 338 337 337 337 337 336 335 333 332 331 330 328 327 328 327 325 326 327 327 327 326 326 325 325
312 311 312 312 325 326 329 331 335 337 337 337 336 336 335 333 332 331 330 329 328 327 326 326 326 327 326 326 326 326 325 324
307 307 308 308 310 321 326 329 330 334 335 335 336 335 332 330 329 329 328 327 326 324 324 325 325 326 325 325 325 325 325 324
304 303 304 304 305 307 314 326 327 331 333 332 331 329 328 328 328 327 325 324 323 323 323 324 325 325 325 325 325 325 325 324
301 300 300 300 300 301 304 310 326 328 328 329 328 327 327 327 326 324 322 322 321 321 320 320 322 324 324 324 325 324 324 323
298 297 298 297 298 298 300 302 307 326 327 327 326 326 326 326 325 323 320 321 320 320 320 320 321 324 324 324 324 324 323 323
296 295 295 294 295 296 297 298 301 311 325 325 325 325 325 325 324 322 321 321 320 319 319 319 320 321 323 323 323 323 323 323
294 293 293 292 293 293 295 296 298 304 322 324 325 324 324 323 323 322 322 320 320 319 319 319 319 319 319 321 321 322 321 322
291 291 291 291 291 292 293 294 295 298 304 318 323 325 324 323 323 323 322 321 319 319 319 319 317 318 318 319 320 321 322 321
289 289 290 289 290 290 291 292 292 293 295 298 308 317 319 319 319 319 315 313 315 314 313 314 314 313 316 316 317 318 318 317
288 287 287 288 288 289 290 290 291 290 291 292 295 303 303 304 306 306 305 305 303 302 301 302 305 307 311 315 315 315 313 310

GFSFLT1_925_thetae_102.txt.gz
Theta_e
312 313 314 315 316 316 320 332 336 343 344 343 342 342 342 341 340 340 339 340 339 338 337 336 335 332 331 330 329 328 326 326
311 313 315 316 316 316 317 331 338 343 343 342 340 340 342 342 342 341 340 340 339 338 337 335 334 331 331 330 329 328 327 327
306 309 311 314 316 316 316 328 335 342 342 342 340 340 340 340 341 341 339 339 338 337 336 334 334 332 331 330 329 328 328 328
307 307 308 310 312 315 316 324 337 340 342 341 340 339 338 338 338 338 338 338 336 335 335 334 332 331 330 329 329 328 327 327
312 319 320 322 320 315 316 327 338 341 342 340 339 338 337 337 337 336 335 335 333 334 335 333 331 330 330 329 329 327 327 326
321 319 320 321 322 323 323 332 340 341 341 339 338 337 336 336 335 335 336 335 335 334 333 332 331 330 330 329 328 327 327 326
316 316 316 316 321 326 330 341 341 340 339 338 337 336 335 334 334 333 333 334 334 333 332 331 330 330 329 328 328 328 327 326
311 312 312 312 313 322 322 341 340 339 338 337 337 336 334 334 332 332 331 331 331 331 332 331 330 329 329 328 327 327 326 326
308 309 309 309 309 311 323 335 340 338 337 336 335 335 333 333 332 332 331 330 330 329 328 328 328 327 327 327 327 326 326 325
304 304 304 305 305 306 310 323 331 336 335 334 334 334 334 332 332 332 330 330 329 327 327 327 327 327 327 327 326 326 326 325
300 301 300 301 301 303 305 309 316 330 334 335 335 335 334 333 332 331 331 330 329 327 326 327 327 326 326 326 326 326 326 325
297 297 297 298 298 299 301 304 307 314 331 333 334 334 334 333 331 330 330 329 328 327 325 325 325 326 326 326 326 326 326 325
294 295 295 295 295 296 298 300 302 306 320 327 330 330 329 328 328 327 326 324 323 322 323 323 323 324 325 325 325 325 325 325
292 292 293 293 293 294 295 297 299 303 314 326 327 327 327 326 324 323 323 322 321 321 321 320 320 320 321 322 324 325 325 325
291 291 292 291 292 292 293 295 296 299 305 325 326 326 326 325 324 323 322 321 321 320 319 318 320 320 321 323 324 324 324 324
291 290 290 290 291 291 292 293 294 296 299 307 315 325 325 325 323 322 321 321 320 319 319 319 318 318 319 320 324 324 324 323
289 289 289 289 289 289 291 291 292 294 294 295 301 313 323 323 323 322 321 320 319 319 319 318 318 318 318 318 320 322 323 322
287 287 288 288 288 288 288 289 290 291 292 292 294 297 302 310 315 317 313 312 313 313 311 311 312 314 317 318 319 318 316 318
286 286 286 287 287 286 286 286 287 289 289 290 290 292 293 295 297 301 301 302 300 299 300 301 303 304 310 314 316 315 314 314

GFSFLT1_925_thetae_105.txt.gz
Theta_e
309 311 312 312 313 314 314 321 342 343 343 342 341 339 339 339 337 334 335 336 339 339 336 335 335 335 331 330 330 328 326 326
307 309 310 311 311 312 313 323 338 342 342 341 339 339 339 340 339 337 336 337 339 339 337 335 334 335 332 330 330 329 327 327
305 307 308 309 309 311 313 319 332 341 341 342 340 339 339 339 339 339 338 338 338 339 337 334 333 332 331 330 330 328 328 327
304 304 305 309 310 310 310 317 330 338 340 341 340 339 338 337 337 338 339 339 339 339 337 336 334 332 331 331 329 329 328 328
314 317 318 318 320 323 319 312 329 336 340 340 338 338 337 338 337 339 338 339 339 338 337 335 334 333 332 330 329 328 328 327
312 313 313 313 315 320 324 315 325 335 340 339 338 337 337 336 336 337 337 337 337 337 337 335 333 332 332 331 329 328 328 327
309 309 310 311 311 313 321 328 327 336 339 339 337 337 336 335 335 335 335 334 336 336 335 333 334 333 331 330 329 329 328 327
306 306 306 307 306 308 313 328 338 338 340 339 338 337 335 335 335 335 334 333 333 333 333 332 333 332 331 330 329 328 328 327
302 303 303 302 303 304 307 311 318 338 338 337 337 336 335 334 334 333 332 332 331 332 331 332 332 331 331 330 329 328 328 327
297 298 299 300 300 300 303 306 310 321 337 336 334 335 334 334 333 332 332 332 332 332 330 330 330 330 330 329 328 328 327 327
294 295 296 296 298 298 300 303 305 309 327 333 332 333 333 332 332 332 332 331 330 329 329 329 328 327 327 327 327 326 325 326
293 293 294 294 295 296 297 300 302 305 312 326 331 332 332 332 331 330 330 330 329 329 328 327 326 325 327 327 326 326 326 326
292 292 292 292 293 294 295 297 300 302 306 318 328 331 332 331 330 329 329 329 328 328 327 326 325 325 325 325 326 325 325 325
291 290 291 291 291 292 293 294 296 299 304 314 325 327 327 327 328 328 327 325 324 323 322 321 322 322 321 322 322 324 325 325
289 289 290 290 290 290 291 292 293 296 299 301 311 320 326 326 325 324 323 321 321 321 321 320 319 318 319 319 320 321 322 323
288 288 289 289 289 288 289 290 292 293 295 296 299 305 324 324 322 321 321 321 320 320 319 318 318 318 317 317 317 320 323 324
287 287 287 288 288 287 287 287 289 290 292 293 294 297 304 311 319 320 320 320 319 319 318 317 316 315 316 317 317 319 322 323
286 286 286 287 287 286 285 286 286 287 289 290 291 292 292 294 298 304 305 309 312 312 310 309 309 310 314 316 316 317 318 317
285 285 285 286 285 285 284 284 284 285 285 286 288 290 290 289 290 290 292 294 296 299 301 300 301 301 305 309 312 315 313 312

GFSFLT1_925_thetae_108.txt.gz
Theta_e
306 307 308 309 310 311 311 312 315 328 339 338 336 335 334 333 334 336 336 338 336 335 338 338 335 331 333 332 332 331 329 327
304 304 305 306 307 309 310 311 313 328 339 339 338 337 336 335 334 333 335 333 339 336 338 336 336 331 330 331 330 330 328 328
314 313 308 306 305 305 308 309 311 322 335 339 338 338 338 337 336 336 335 334 334 338 337 335 334 333 330 329 330 328 328 327
312 312 312 313 314 317 317 309 310 317 334 339 339 339 338 336 336 336 336 335 334 335 335 335 334 333 332 331 331 329 328 327
309 309 310 311 310 311 315 321 314 318 333 338 338 337 337 336 336 337 338 336 336 335 335 335 333 334 331 331 331 330 328 327
307 306 306 306 307 307 309 316 321 318 334 337 338 338 336 335 336 335 336 338 336 336 336 335 334 333 332 332 330 330 329 328
302 302 303 303 303 304 305 312 325 318 333 337 338 337 336 335 336 335 334 335 335 335 335 336 335 334 332 332 331 330 329 328
299 298 299 300 301 301 303 307 315 325 334 337 337 336 335 335 335 335 334 334 334 334 334 334 333 334 333 331 331 330 329 328
296 296 297 297 299 300 301 303 308 315 336 336 337 336 335 334 334 334 333 332 333 333 334 334 334 334 333 331 330 330 329 328
294 294 294 295 296 298 300 301 304 308 321 336 337 335 335 334 333 334 333 332 332 332 332 332 332 332 331 331 330 329 329 328
292 292 292 292 293 295 298 299 301 304 310 324 335 335 334 334 333 334 332 332 332 331 331 330 331 330 330 331 329 329 329 328
291 291 291 291 292 293 295 297 299 301 305 316 330 333 333 331 332 332 331 330 331 331 331 330 330 329 329 329 328 327 327 327
290 290 290 290 290 291 292 294 296 298 302 310 326 330 330 330 330 331 330 329 330 330 328 328 328 327 326 325 325 326 326 326
288 288 289 289 289 289 290 291 293 296 298 302 310 316 327 327 326 327 328 328 328 327 327 326 326 325 324 324 324 323 323 324
288 287 288 288 288 288 288 288 290 293 295 297 299 304 316 323 324 325 326 326 325 324 323 322 321 320 319 319 319 319 319 320
287 287 287 287 287 286 286 287 288 290 293 293 294 297 300 317 319 321 320 320 320 320 320 319 318 318 317 317 317 317 317 318
286 286 286 287 285 285 285 285 286 287 289 291 291 293 292 297 303 304 311 310 311 313 315 315 314 311 311 314 316 316 316 317
285 284 285 285 285 284 284 284 285 286 286 288 289 292 291 290 291 293 295 296 298 297 297 300 300 302 303 311 315 314 314 313
283 283 283 284 285 283 283 282 283 284 284 285 286 288 289 288 289 288 288 289 289 289 289 291 292 293 298 302 308 309 308 307

GFSFLT1_925_thetae_111.txt.gz
Theta_e
306 306 305 306 306 306 307 308 310 327 333 336 337 336 335 335 334 334 334 334 335 335 335 336 335 336 336 336 334 332 333 333
306 312 313 312 309 306 306 307 308 316 332 335 335 335 335 335 334 333 333 333 335 334 335 335 334 335 335 334 333 332 329 329
313 313 312 313 314 314 315 314 308 309 324 332 333 334 335 335 334 334 333 334 336 336 334 333 333 333 334 333 332 330 330 329
311 310 309 309 310 311 311 313 316 316 310 327 334 335 336 336 335 335 334 335 336 335 334 332 333 333 332 332 332 331 330 327
304 305 305 305 307 307 308 309 311 315 318 319 333 335 334 334 335 336 335 335 335 334 335 332 332 332 332 331 331 330 330 328
299 299 299 300 301 302 303 306 309 314 319 321 333 335 335 335 336 336 335 334 334 335 335 334 331 332 332 332 331 330 330 330
296 296 296 297 297 298 300 303 306 312 320 322 331 335 335 336 336 336 334 335 333 334 333 334 332 331 332 332 332 331 330 330
294 294 295 295 296 296 298 301 303 307 314 321 330 335 336 336 336 336 335 333 333 333 334 333 332 332 332 333 332 331 330 330
293 293 293 292 293 294 296 299 302 305 309 320 330 333 334 336 336 336 334 333 333 333 333 333 333 333 332 332 332 331 330 330
292 291 291 291 292 292 294 297 300 302 305 311 330 332 334 334 335 335 335 334 334 333 333 332 332 332 331 335 331 330 330 329
290 290 290 290 290 291 292 294 298 300 303 307 319 334 333 333 334 335 335 333 332 332 331 333 331 332 330 330 330 330 329 329
289 289 289 289 289 289 291 292 295 298 300 304 317 332 333 332 332 334 334 332 331 330 330 331 332 330 330 331 330 329 329 329
289 288 288 288 288 288 289 290 291 295 298 301 306 320 331 330 331 331 332 331 329 329 329 330 330 329 328 329 329 328 328 327
287 287 287 287 287 287 287 288 289 292 295 298 300 305 317 327 328 328 328 327 327 327 328 327 328 328 327 326 325 325 325 324
287 286 287 286 286 286 286 287 288 289 293 294 296 296 300 309 320 322 323 324 324 324 325 325 323 322 321 321 321 321 320 320
286 286 286 286 285 285 284 285 286 288 290 291 293 294 294 298 304 308 314 316 316 317 315 315 315 315 311 315 316 317 317 317
285 285 285 285 285 284 283 284 284 286 287 289 290 292 292 291 292 294 299 300 303 306 302 302 301 298 303 309 313 314 315 313
284 284 284 284 284 284 283 283 283 284 285 286 288 288 291 292 289 290 289 290 293 294 293 293 291 290 294 301 307 306 306 305
282 282 282 282 283 283 283 282 282 283 284 284 285 286 287 290 290 288 289 288 289 287 287 287 287 287 290 295 297 299 297 295

GFSFLT1_925_thetae_114.txt.gz
Theta_e
308 309 310 313 314 315 314 312 312 315 326 335 335 338 339 339 338 338 339 340 340 340 339 339 336 337 337 338 338 338 338 337
314 314 314 314 314 315 317 318 319 313 315 327 330 336 336 338 339 339 339 340 340 339 338 338 335 336 337 337 338 337 337 337
311 310 310 311 311 313 314 314 315 317 316 315 327 331 334 334 336 339 340 339 339 339 337 337 336 336 336 335 335 335 335 334
308 307 307 307 307 308 309 310 312 313 316 319 316 328 331 333 336 339 340 338 338 338 337 336 336 335 335 334 334 334 333 332
305 304 303 303 303 304 305 307 308 310 313 317 319 321 330 333 334 336 336 338 338 338 337 335 335 335 334 334 333 334 333 331
303 302 300 300 301 301 301 303 304 307 311 314 319 319 327 331 334 334 335 336 337 336 335 336 334 334 334 334 333 333 333 332
301 299 298 299 299 298 298 299 301 303 306 310 316 323 324 330 331 335 335 336 335 335 335 335 334 334 333 333 333 333 332 333
298 298 297 296 295 295 295 295 297 299 303 306 312 319 324 331 331 335 336 336 334 335 334 334 333 333 333 333 333 332 331 332
296 295 294 293 293 294 294 293 294 296 299 304 308 316 325 330 332 333 335 336 334 333 334 334 334 333 333 333 332 332 332 332
294 293 292 292 290 291 291 291 292 294 298 302 307 316 328 332 333 334 335 336 334 334 334 333 333 332 333 333 332 332 332 333
292 291 290 290 289 288 289 289 291 293 296 302 305 313 327 333 334 335 335 336 335 334 334 333 332 332 332 332 332 332 332 332
291 290 288 288 288 287 287 288 290 292 296 301 305 311 331 334 333 333 335 336 334 335 335 333 332 332 331 331 332 331 331 331
290 288 287 287 287 286 286 287 289 291 294 299 301 304 322 332 332 332 334 334 335 333 333 332 331 331 330 330 331 330 330 330
289 288 287 286 286 286 285 286 288 290 292 296 298 298 303 309 323 331 332 332 331 330 330 331 330 328 328 330 330 329 329 329
289 288 286 286 286 285 284 285 286 288 291 292 295 294 296 298 302 310 315 320 322 320 321 321 321 321 321 322 324 325 324 324
288 287 287 286 286 285 284 284 285 287 288 290 291 292 292 292 293 296 298 303 303 304 307 305 305 308 307 313 317 317 317 318
287 286 286 286 286 285 285 284 284 285 286 287 288 290 290 291 290 291 291 292 293 295 296 295 295 296 298 306 311 311 311 310
285 286 285 285 285 286 285 285 284 284 285 285 286 287 289 288 289 289 288 288 289 288 289 290 290 291 296 300 305 305 303 299
284 284 284 283 285 285 286 286 285 284 284 285 285 286 286 287 287 287 287 286 286 286 286 286 286 287 292 293 295 296 293 291

GFSFLT1_925_thetae_117.txt.gz
Theta_e
315 316 316 316 317 317 317 318 320 320 317 319 331 336 338 341 340 339 339 342 342 341 340 340 340 342 342 342 341 340 340 339
314 312 312 313 314 314 314 316 317 319 321 317 320 334 336 339 341 341 339 340 343 342 341 341 340 340 341 340 341 340 339 339
311 310 310 310 310 311 312 312 313 315 317 319 318 320 329 335 337 339 341 341 342 343 342 341 342 340 339 338 339 340 340 339
310 308 307 307 307 308 308 309 310 312 313 315 317 320 319 330 336 338 340 342 343 343 343 342 341 340 338 338 337 338 339 339
308 307 306 305 304 305 306 306 306 308 310 312 316 318 321 324 333 336 336 341 342 343 343 342 341 340 338 336 336 337 336 335
305 304 302 302 302 302 302 303 303 305 307 309 312 316 319 322 322 335 336 338 340 343 342 343 341 339 337 336 335 336 336 335
302 300 299 299 299 299 299 300 301 302 304 305 307 310 315 319 324 327 334 336 338 341 341 341 341 339 337 337 335 334 336 335
300 299 297 296 295 296 295 296 297 298 300 302 303 306 310 316 320 325 332 335 337 338 339 339 339 338 336 336 335 334 334 334
297 295 294 293 292 293 292 292 294 295 296 297 299 302 305 312 318 323 327 335 337 338 337 336 336 337 336 335 334 334 333 334
295 293 291 290 291 290 290 290 291 292 293 294 296 299 304 308 317 323 328 332 336 337 336 335 334 335 335 334 334 333 333 334
293 291 290 289 289 289 289 288 289 290 291 293 296 299 304 308 317 326 330 332 336 335 336 334 334 334 334 333 333 333 333 332
293 291 288 288 288 287 287 287 288 289 290 293 296 301 304 309 320 328 333 332 332 334 335 334 334 334 334 334 333 333 332 332
293 290 289 288 287 287 286 286 286 288 290 292 298 298 302 309 320 329 332 332 332 333 333 333 334 333 333 332 332 332 332 331
291 290 289 289 288 287 286 286 286 287 289 291 295 295 297 298 300 305 320 328 329 330 330 330 332 332 332 332 332 331 330 330
290 289 289 289 288 288 287 286 285 286 288 290 292 293 293 293 294 296 298 301 304 305 310 309 312 317 322 328 330 329 329 330
289 289 289 288 288 289 288 286 285 286 287 288 289 290 291 290 290 290 291 292 293 294 297 299 301 303 305 314 319 321 320 320
288 288 287 287 287 289 289 287 286 286 287 287 287 288 288 289 288 288 288 288 288 289 289 290 292 293 299 306 309 309 311 311
286 287 286 286 287 287 288 288 286 286 286 286 287 287 287 287 287 287 286 286 286 287 287 287 287 289 291 296 299 296 292 293
285 284 284 284 286 285 287 287 286 285 285 286 286 286 286 287 287 287 286 286 285 285 285 285 285 285 288 290 292 292 292 287

GFSFLT1_925_thetae_120.txt.gz
Theta_e
315 313 312 312 313 313 314 315 315 316 318 320 320 319 338 339 340 341 343 343 339 342 345 343 338 342 343 342 341 341 341 339
312 311 310 310 310 310 311 311 312 313 315 318 320 321 321 339 341 341 340 342 343 339 342 344 340 338 342 343 342 340 340 339
311 310 309 308 308 307 307 309 309 310 311 313 315 316 318 321 335 340 341 341 342 343 342 342 342 339 340 344 343 341 340 339
309 307 306 305 305 304 305 306 306 307 307 309 312 314 317 319 321 326 340 340 341 342 343 341 342 341 340 341 342 342 340 340
306 305 303 302 302 301 301 301 302 303 305 306 309 312 315 317 319 322 334 340 340 342 343 343 342 343 341 340 339 338 340 340
304 302 300 299 298 298 297 298 298 299 301 303 305 307 310 313 316 319 322 327 338 339 339 341 343 342 342 340 339 337 338 337
301 299 297 296 295 294 294 294 295 295 296 298 301 302 305 307 310 315 319 324 329 337 336 339 340 343 339 340 338 337 337 336
298 296 294 293 292 292 292 292 292 292 293 295 297 298 300 303 305 310 315 319 325 332 335 338 339 342 340 340 338 336 336 335
295 294 292 291 290 290 290 290 290 290 291 292 294 295 297 299 302 306 311 317 322 327 332 333 337 339 340 339 338 337 335 334
294 292 291 290 289 289 289 289 288 288 289 290 292 293 295 297 300 303 307 312 319 324 330 333 333 338 338 339 338 337 334 333
293 292 290 290 289 288 288 288 287 287 288 290 291 294 296 298 300 303 306 309 317 324 327 330 331 334 336 336 336 335 334 332
293 291 290 290 289 289 288 287 287 287 288 290 292 296 298 300 303 307 307 310 315 323 329 327 318 329 332 333 335 334 334 333
292 290 289 289 289 289 289 287 287 287 288 290 292 293 295 295 298 302 311 314 318 327 329 326 316 330 333 334 333 333 333 333
290 290 289 289 289 289 288 287 287 287 288 289 290 291 292 292 293 295 296 300 302 306 316 317 321 325 332 333 333 333 332 332
289 289 288 288 288 289 289 287 287 287 287 288 288 289 289 290 291 290 291 293 293 295 297 299 300 307 316 326 331 332 332 332
288 288 287 287 287 288 289 287 286 287 287 287 287 288 288 288 288 289 289 289 291 290 290 292 294 295 301 307 316 315 312 311
287 286 286 286 286 287 288 287 286 286 286 287 287 287 287 287 287 287 287 287 288 288 288 288 289 290 292 297 298 298 299 296
285 285 284 284 285 285 286 286 285 285 286 285 286 286 287 287 287 287 286 286 286 286 286 286 286 286 289 289 291 289 289 291
283 283 282 282 283 282 283 284 284 284 284 285 285 285 285 286 287 287 286 286 285 285 284 285 285 285 285 286 288 290 285 285

GFSFLT1_925_thetae_123.txt.gz
Theta_e
309 308 307 306 306 305 305 306 307 308 309 310 313 314 316 319 324 336 337 338 339 339 343 344 342 343 343 341 341 341 340 339
306 305 303 303 303 302 303 303 304 305 306 307 307 309 311 313 315 318 336 336 336 341 340 341 342 341 343 342 340 340 340 340
304 303 301 300 300 299 299 299 300 300 302 303 305 306 308 311 313 316 319 331 338 338 337 337 340 340 340 342 341 340 340 340
301 300 298 298 297 296 296 296 296 297 298 299 301 304 305 308 310 313 316 319 327 337 336 335 338 341 339 339 342 340 339 339
299 297 296 295 294 293 293 293 293 294 295 295 296 298 303 305 306 308 310 313 318 325 335 336 333 337 341 338 340 341 339 338
297 295 293 293 292 291 291 291 291 291 291 292 293 294 298 301 302 304 306 308 313 318 325 335 337 337 339 339 338 341 339 338
294 293 292 291 290 289 289 289 290 289 290 290 291 292 294 297 299 300 302 305 308 313 318 324 334 336 337 338 339 338 338 337
293 292 291 290 289 289 289 289 289 289 288 288 289 291 292 294 296 298 300 302 305 310 316 319 324 334 336 337 338 337 335 333
292 291 290 289 289 289 289 289 288 288 288 288 288 290 291 292 294 296 298 300 303 305 309 316 323 326 334 334 335 335 331 326
291 290 289 289 289 289 289 288 288 287 287 288 289 290 292 293 294 295 297 299 301 303 307 312 318 324 329 332 334 334 332 326
290 289 288 288 289 289 289 288 287 287 288 288 290 292 294 295 297 298 299 300 302 304 305 308 314 322 327 330 331 331 332 333
288 288 288 288 288 288 289 288 287 287 287 288 290 291 293 294 296 297 299 302 304 307 307 309 313 321 328 331 330 329 330 333
288 288 287 287 288 288 288 287 287 287 287 288 289 289 290 292 292 293 295 297 304 308 310 313 318 321 322 326 326 323 317 326
288 287 287 286 287 287 288 286 286 286 287 287 288 288 288 289 290 290 290 292 293 296 299 301 302 306 311 319 318 316 329 331
287 286 286 286 286 286 287 285 285 286 286 287 287 287 288 287 288 288 288 289 289 289 291 292 293 295 300 308 320 325 327 329
286 286 284 284 284 284 285 284 284 285 285 285 286 287 287 287 287 286 287 287 287 288 288 288 289 291 291 294 297 299 303 301
285 284 283 283 283 282 283 283 283 283 284 283 284 285 286 286 286 286 285 285 285 286 286 287 287 288 290 291 291 290 290 292
283 282 281 281 282 281 281 282 282 282 282 282 281 283 283 284 285 286 284 284 284 284 285 285 286 286 287 289 289 290 288 287
281 281 281 280 281 281 281 281 281 281 280 281 281 280 281 282 283 284 285 283 282 282 282 283 284 285 285 286 286 286 285 285